Wetterdaten: Donnerstag, 30.01.2014
Datum Zeit Temp. Aussen +5cm Feuchte Auss Luftdruck Regen Sonnenschein Regendauer UV Solar Windben
30.01.2014 00:00 0,8 C -0,6 C 83 % 1003,0 hPa 0,0 l/m 0 min 0 min 0,0 UV-I 0 W/m 10,3 km/h (2 Bft)
30.01.2014 00:02 0,8 C -0,6 C 83 % 1003,0 hPa 0,0 l/m 0 min 0 min 0,0 UV-I 0 W/m 5,1 km/h (1 Bft)
30.01.2014 00:04 0,9 C 0,0 C 83 % 1003,0 hPa 0,0 l/m 0 min 0 min 0,0 UV-I 0 W/m 10,3 km/h (2 Bft)
30.01.2014 00:06 0,9 C 0,0 C 83 % 1003,0 hPa 0,0 l/m 0 min 0 min 0,0 UV-I 0 W/m 12,9 km/h (3 Bft)
30.01.2014 00:08 0,9 C 0,0 C 83 % 1003,0 hPa 0,0 l/m 0 min 0 min 0,0 UV-I 0 W/m 12,9 km/h (3 Bft)
30.01.2014 00:10 0,9 C 0,0 C 83 % 1003,0 hPa 0,0 l/m 0 min 0 min 0,0 UV-I 0 W/m 7,7 km/h (2 Bft)
30.01.2014 00:12 1,0 C 0,0 C 83 % 1003,0 hPa 0,0 l/m 0 min 0 min 0,0 UV-I 0 W/m 18,0 km/h (3 Bft)
30.01.2014 00:14 1,0 C 0,0 C 83 % 1003,1 hPa 0,0 l/m 0 min 0 min 0,0 UV-I 0 W/m 10,3 km/h (2 Bft)
30.01.2014 00:16 1,1 C 0,0 C 83 % 1003,1 hPa 0,0 l/m 0 min 0 min 0,0 UV-I 0 W/m 0,0 km/h (0 Bft)
30.01.2014 00:18 1,1 C 0,0 C 83 % 1003,2 hPa 0,0 l/m 0 min 0 min 0,0 UV-I 0 W/m 10,3 km/h (2 Bft)
30.01.2014 00:20 1,1 C 0,0 C 83 % 1003,1 hPa 0,0 l/m 0 min 0 min 0,0 UV-I 0 W/m 0,0 km/h (0 Bft)
30.01.2014 00:22 1,1 C 0,0 C 83 % 1003,1 hPa 0,0 l/m 0 min 0 min 0,0 UV-I 0 W/m 10,3 km/h (2 Bft)
30.01.2014 00:24 1,1 C 0,0 C 83 % 1003,1 hPa 0,0 l/m 0 min 0 min 0,0 UV-I 0 W/m 10,3 km/h (2 Bft)
30.01.2014 00:26 1,2 C 0,0 C 83 % 1003,2 hPa 0,0 l/m 0 min 0 min 0,0 UV-I 0 W/m 5,1 km/h (1 Bft)
30.01.2014 00:28 1,2 C 0,0 C 83 % 1003,2 hPa 0,0 l/m 0 min 0 min 0,0 UV-I 0 W/m 18,0 km/h (3 Bft)
30.01.2014 00:30 1,2 C 0,0 C 83 % 1003,2 hPa 0,0 l/m 0 min 0 min 0,0 UV-I 0 W/m 12,9 km/h (3 Bft)
30.01.2014 00:32 1,3 C 0,0 C 82 % 1003,2 hPa 0,0 l/m 0 min 0 min 0,0 UV-I 0 W/m 0,0 km/h (0 Bft)
30.01.2014 00:34 1,3 C 0,0 C 82 % 1003,3 hPa 0,0 l/m 0 min 0 min 0,0 UV-I 0 W/m 18,0 km/h (3 Bft)
30.01.2014 00:36 1,3 C 0,0 C 82 % 1003,3 hPa 0,0 l/m 0 min 0 min 0,0 UV-I 0 W/m 23,2 km/h (4 Bft)
30.01.2014 00:38 1,4 C 0,0 C 82 % 1003,4 hPa 0,0 l/m 0 min 0 min 0,0 UV-I 0 W/m 18,0 km/h (3 Bft)
30.01.2014 00:40 1,4 C 0,6 C 82 % 1003,5 hPa 0,0 l/m 0 min 0 min 0,0 UV-I 0 W/m 15,4 km/h (3 Bft)
30.01.2014 00:42 1,4 C 0,6 C 82 % 1003,5 hPa 0,0 l/m 0 min 0 min 0,0 UV-I 0 W/m 2,6 km/h (1 Bft)
30.01.2014 00:44 1,4 C 0,6 C 82 % 1003,5 hPa 0,0 l/m 0 min 0 min 0,0 UV-I 0 W/m 20,6 km/h (4 Bft)
30.01.2014 00:46 1,4 C 0,6 C 82 % 1003,4 hPa 0,0 l/m 0 min 0 min 0,0 UV-I 0 W/m 12,9 km/h (3 Bft)
30.01.2014 00:48 1,5 C 0,6 C 82 % 1003,5 hPa 0,0 l/m 0 min 0 min 0,0 UV-I 0 W/m 18,0 km/h (3 Bft)
30.01.2014 00:50 1,5 C 0,6 C 82 % 1003,5 hPa 0,0 l/m 0 min 0 min 0,0 UV-I 0 W/m 10,3 km/h (2 Bft)
30.01.2014 00:52 1,5 C 0,6 C 82 % 1003,5 hPa 0,0 l/m 0 min 0 min 0,0 UV-I 0 W/m 12,9 km/h (3 Bft)
30.01.2014 00:54 1,5 C 0,6 C 81 % 1003,5 hPa 0,0 l/m 0 min 0 min 0,0 UV-I 0 W/m 12,9 km/h (3 Bft)
30.01.2014 00:56 1,6 C 0,6 C 81 % 1003,5 hPa 0,0 l/m 0 min 0 min 0,0 UV-I 0 W/m 10,3 km/h (2 Bft)
30.01.2014 00:58 1,5 C 0,6 C 81 % 1003,4 hPa 0,0 l/m 0 min 0 min 0,0 UV-I 0 W/m 12,9 km/h (3 Bft)
30.01.2014 01:00 1,6 C 0,6 C 81 % 1003,5 hPa 0,0 l/m 0 min 0 min 0,0 UV-I 0 W/m 7,7 km/h (2 Bft)
30.01.2014 01:02 1,6 C 0,6 C 81 % 1003,5 hPa 0,0 l/m 0 min 0 min 0,0 UV-I 0 W/m 7,7 km/h (2 Bft)
30.01.2014 01:04 1,6 C 0,6 C 81 % 1003,5 hPa 0,0 l/m 0 min 0 min 0,0 UV-I 0 W/m 12,9 km/h (3 Bft)
30.01.2014 01:06 1,6 C 0,6 C 81 % 1003,4 hPa 0,0 l/m 0 min 0 min 0,0 UV-I 0 W/m 0,0 km/h (0 Bft)
30.01.2014 01:08 1,6 C 0,6 C 81 % 1003,4 hPa 0,0 l/m 0 min 0 min 0,0 UV-I 0 W/m 10,3 km/h (2 Bft)
30.01.2014 01:10 1,6 C 0,6 C 81 % 1003,4 hPa 0,0 l/m 0 min 0 min 0,0 UV-I 0 W/m 18,0 km/h (3 Bft)
30.01.2014 01:12 1,6 C 0,6 C 81 % 1003,3 hPa 0,0 l/m 0 min 0 min 0,0 UV-I 0 W/m 12,9 km/h (3 Bft)
30.01.2014 01:14 1,6 C 0,6 C 81 % 1003,4 hPa 0,0 l/m 0 min 0 min 0,0 UV-I 0 W/m 23,2 km/h (4 Bft)
30.01.2014 01:16 1,6 C 0,6 C 81 % 1003,3 hPa 0,0 l/m 0 min 0 min 0,0 UV-I 0 W/m 7,7 km/h (2 Bft)
30.01.2014 01:18 1,6 C 0,6 C 81 % 1003,3 hPa 0,0 l/m 0 min 0 min 0,0 UV-I 0 W/m 12,9 km/h (3 Bft)
30.01.2014 01:20 1,6 C 0,6 C 81 % 1003,4 hPa 0,0 l/m 0 min 0 min 0,0 UV-I 0 W/m 10,3 km/h (2 Bft)
30.01.2014 01:22 1,6 C 0,6 C 81 % 1003,3 hPa 0,0 l/m 0 min 0 min 0,0 UV-I 0 W/m 12,9 km/h (3 Bft)
30.01.2014 01:24 1,6 C 0,6 C 81 % 1003,3 hPa 0,0 l/m 0 min 0 min 0,0 UV-I 0 W/m 15,4 km/h (3 Bft)
30.01.2014 01:26 1,6 C 0,6 C 81 % 1003,4 hPa 0,0 l/m 0 min 0 min 0,0 UV-I 0 W/m 18,0 km/h (3 Bft)
30.01.2014 01:28 1,6 C 0,6 C 81 % 1003,4 hPa 0,0 l/m 0 min 0 min 0,0 UV-I 0 W/m 12,9 km/h (3 Bft)
30.01.2014 01:30 1,6 C 0,6 C 81 % 1003,5 hPa 0,0 l/m 0 min 0 min 0,0 UV-I 0 W/m 18,0 km/h (3 Bft)
30.01.2014 01:32 1,6 C 0,6 C 81 % 1003,4 hPa 0,0 l/m 0 min 0 min 0,0 UV-I 0 W/m 23,2 km/h (4 Bft)
30.01.2014 01:34 1,6 C 0,6 C 81 % 1003,4 hPa 0,0 l/m 0 min 0 min 0,0 UV-I 0 W/m 10,3 km/h (2 Bft)
30.01.2014 01:36 1,6 C 0,6 C 81 % 1003,5 hPa 0,0 l/m 0 min 0 min 0,0 UV-I 0 W/m 12,9 km/h (3 Bft)
30.01.2014 01:38 1,6 C 0,6 C 81 % 1003,4 hPa 0,0 l/m 0 min 0 min 0,0 UV-I 0 W/m 12,9 km/h (3 Bft)
30.01.2014 01:40 1,6 C 0,6 C 81 % 1003,5 hPa 0,0 l/m 0 min 0 min 0,0 UV-I 0 W/m 7,7 km/h (2 Bft)
30.01.2014 01:42 1,5 C 0,6 C 81 % 1003,5 hPa 0,0 l/m 0 min 0 min 0,0 UV-I 0 W/m 5,1 km/h (1 Bft)
30.01.2014 01:44 1,5 C 0,6 C 81 % 1003,4 hPa 0,0 l/m 0 min 0 min 0,0 UV-I 0 W/m 7,7 km/h (2 Bft)
30.01.2014 01:46 1,5 C 0,0 C 82 % 1003,5 hPa 0,0 l/m 0 min 0 min 0,0 UV-I 0 W/m 10,3 km/h (2 Bft)
30.01.2014 01:48 1,5 C 0,0 C 82 % 1003,4 hPa 0,0 l/m 0 min 0 min 0,0 UV-I 0 W/m 7,7 km/h (2 Bft)
30.01.2014 01:50 1,5 C 0,0 C 82 % 1003,5 hPa 0,0 l/m 0 min 0 min 0,0 UV-I 0 W/m 18,0 km/h (3 Bft)
30.01.2014 01:52 1,5 C 0,0 C 82 % 1003,5 hPa 0,0 l/m 0 min 0 min 0,0 UV-I 0 W/m 5,1 km/h (1 Bft)
30.01.2014 01:54 1,5 C 0,6 C 82 % 1003,5 hPa 0,0 l/m 0 min 0 min 0,0 UV-I 0 W/m 7,7 km/h (2 Bft)
30.01.2014 01:56 1,5 C 0,0 C 82 % 1003,5 hPa 0,0 l/m 0 min 0 min 0,0 UV-I 0 W/m 5,1 km/h (1 Bft)
30.01.2014 01:58 1,4 C 0,0 C 82 % 1003,5 hPa 0,0 l/m 0 min 0 min 0,0 UV-I 0 W/m 0,0 km/h (0 Bft)
30.01.2014 02:00 1,4 C 0,0 C 82 % 1003,5 hPa 0,0 l/m 0 min 0 min 0,0 UV-I 0 W/m 7,7 km/h (2 Bft)
30.01.2014 02:02 1,4 C 0,0 C 82 % 1003,5 hPa 0,0 l/m 0 min 0 min 0,0 UV-I 0 W/m 5,1 km/h (1 Bft)
30.01.2014 02:04 1,4 C 0,0 C 82 % 1003,6 hPa 0,0 l/m 0 min 0 min 0,0 UV-I 0 W/m 5,1 km/h (1 Bft)
30.01.2014 02:06 1,4 C 0,0 C 82 % 1003,7 hPa 0,0 l/m 0 min 0 min 0,0 UV-I 0 W/m 2,6 km/h (1 Bft)
30.01.2014 02:08 1,4 C 0,0 C 82 % 1003,7 hPa 0,0 l/m 0 min 0 min 0,0 UV-I 0 W/m 18,0 km/h (3 Bft)
30.01.2014 02:10 1,4 C 0,0 C 82 % 1003,8 hPa 0,0 l/m 0 min 0 min 0,0 UV-I 0 W/m 10,3 km/h (2 Bft)
30.01.2014 02:12 1,4 C 0,0 C 82 % 1003,8 hPa 0,0 l/m 0 min 0 min 0,0 UV-I 0 W/m 10,3 km/h (2 Bft)
30.01.2014 02:14 1,5 C 0,0 C 82 % 1003,7 hPa 0,0 l/m 0 min 0 min 0,0 UV-I 0 W/m 15,4 km/h (3 Bft)
30.01.2014 02:16 1,4 C 0,0 C 82 % 1003,7 hPa 0,0 l/m 0 min 0 min 0,0 UV-I 0 W/m 12,9 km/h (3 Bft)
30.01.2014 02:18 1,4 C 0,0 C 82 % 1003,7 hPa 0,0 l/m 0 min 0 min 0,0 UV-I 0 W/m 12,9 km/h (3 Bft)
30.01.2014 02:20 1,4 C 0,0 C 82 % 1003,7 hPa 0,0 l/m 0 min 0 min 0,0 UV-I 0 W/m 20,6 km/h (4 Bft)
30.01.2014 02:22 1,4 C 0,0 C 82 % 1003,7 hPa 0,0 l/m 0 min 0 min 0,0 UV-I 0 W/m 12,9 km/h (3 Bft)
30.01.2014 02:24 1,4 C 0,0 C 82 % 1003,7 hPa 0,0 l/m 0 min 0 min 0,0 UV-I 0 W/m 10,3 km/h (2 Bft)
30.01.2014 02:26 1,4 C 0,0 C 82 % 1003,8 hPa 0,0 l/m 0 min 0 min 0,0 UV-I 0 W/m 12,9 km/h (3 Bft)
30.01.2014 02:28 1,4 C 0,0 C 82 % 1003,8 hPa 0,0 l/m 0 min 0 min 0,0 UV-I 0 W/m 20,6 km/h (4 Bft)
30.01.2014 02:30 1,4 C 0,0 C 82 % 1003,8 hPa 0,0 l/m 0 min 0 min 0,0 UV-I 0 W/m 15,4 km/h (3 Bft)
30.01.2014 02:32 1,4 C 0,0 C 82 % 1003,8 hPa 0,0 l/m 0 min 0 min 0,0 UV-I 0 W/m 12,9 km/h (3 Bft)
30.01.2014 02:34 1,4 C 0,6 C 82 % 1003,8 hPa 0,0 l/m 0 min 0 min 0,0 UV-I 0 W/m 10,3 km/h (2 Bft)
30.01.2014 02:36 1,5 C 0,0 C 82 % 1003,7 hPa 0,0 l/m 0 min 0 min 0,0 UV-I 0 W/m 12,9 km/h (3 Bft)
30.01.2014 02:38 1,5 C 0,6 C 82 % 1003,7 hPa 0,0 l/m 0 min 0 min 0,0 UV-I 0 W/m 10,3 km/h (2 Bft)
30.01.2014 02:40 1,5 C 0,6 C 82 % 1003,7 hPa 0,0 l/m 0 min 0 min 0,0 UV-I 0 W/m 10,3 km/h (2 Bft)
30.01.2014 02:42 1,5 C 0,6 C 82 % 1003,7 hPa 0,0 l/m 0 min 0 min 0,0 UV-I 0 W/m 7,7 km/h (2 Bft)
30.01.2014 02:44 1,5 C 0,6 C 82 % 1003,6 hPa 0,0 l/m 0 min 0 min 0,0 UV-I 0 W/m 12,9 km/h (3 Bft)
30.01.2014 02:46 1,5 C 0,6 C 82 % 1003,7 hPa 0,0 l/m 0 min 0 min 0,0 UV-I 0 W/m 12,9 km/h (3 Bft)
30.01.2014 02:48 1,5 C 0,6 C 82 % 1003,7 hPa 0,0 l/m 0 min 0 min 0,0 UV-I 0 W/m 10,3 km/h (2 Bft)
30.01.2014 02:50 1,5 C 0,6 C 82 % 1003,7 hPa 0,0 l/m 0 min 0 min 0,0 UV-I 0 W/m 15,4 km/h (3 Bft)
30.01.2014 02:52 1,5 C 0,6 C 82 % 1003,7 hPa 0,0 l/m 0 min 0 min 0,0 UV-I 0 W/m 10,3 km/h (2 Bft)
30.01.2014 02:54 1,4 C 0,0 C 82 % 1003,7 hPa 0,0 l/m 0 min 0 min 0,0 UV-I 0 W/m 18,0 km/h (3 Bft)
30.01.2014 02:56 1,4 C 0,6 C 82 % 1003,7 hPa 0,0 l/m 0 min 0 min 0,0 UV-I 0 W/m 18,0 km/h (3 Bft)
30.01.2014 02:58 1,5 C 0,6 C 82 % 1003,7 hPa 0,0 l/m 0 min 0 min 0,0 UV-I 0 W/m 15,4 km/h (3 Bft)
30.01.2014 03:00 1,5 C 0,6 C 82 % 1003,7 hPa 0,0 l/m 0 min 0 min 0,0 UV-I 0 W/m 12,9 km/h (3 Bft)
30.01.2014 03:02 1,5 C 0,6 C 82 % 1003,7 hPa 0,0 l/m 0 min 0 min 0,0 UV-I 0 W/m 15,4 km/h (3 Bft)
30.01.2014 03:04 1,5 C 0,6 C 82 % 1003,7 hPa 0,0 l/m 0 min 0 min 0,0 UV-I 0 W/m 18,0 km/h (3 Bft)
30.01.2014 03:06 1,5 C 0,6 C 82 % 1003,7 hPa 0,0 l/m 0 min 0 min 0,0 UV-I 0 W/m 15,4 km/h (3 Bft)
30.01.2014 03:08 1,6 C 0,6 C 82 % 1003,7 hPa 0,0 l/m 0 min 0 min 0,0 UV-I 0 W/m 12,9 km/h (3 Bft)
30.01.2014 03:10 1,6 C 0,6 C 82 % 1003,7 hPa 0,0 l/m 0 min 0 min 0,0 UV-I 0 W/m 10,3 km/h (2 Bft)
30.01.2014 03:12 1,6 C 0,6 C 82 % 1003,7 hPa 0,0 l/m 0 min 0 min 0,0 UV-I 0 W/m 18,0 km/h (3 Bft)
30.01.2014 03:14 1,6 C 0,6 C 82 % 1003,7 hPa 0,0 l/m 0 min 0 min 0,0 UV-I 0 W/m 10,3 km/h (2 Bft)
30.01.2014 03:16 1,6 C 0,6 C 82 % 1003,8 hPa 0,0 l/m 0 min 0 min 0,0 UV-I 0 W/m 12,9 km/h (3 Bft)
30.01.2014 03:18 1,6 C 0,6 C 82 % 1003,8 hPa 0,0 l/m 0 min 0 min 0,0 UV-I 0 W/m 7,7 km/h (2 Bft)
30.01.2014 03:20 1,6 C 0,6 C 82 % 1003,8 hPa 0,0 l/m 0 min 0 min 0,0 UV-I 0 W/m 12,9 km/h (3 Bft)
30.01.2014 03:22 1,6 C 0,6 C 82 % 1003,8 hPa 0,0 l/m 0 min 0 min 0,0 UV-I 0 W/m 10,3 km/h (2 Bft)
30.01.2014 03:24 1,6 C 0,6 C 82 % 1003,8 hPa 0,0 l/m 0 min 0 min 0,0 UV-I 0 W/m 5,1 km/h (1 Bft)
30.01.2014 03:26 1,6 C 0,6 C 82 % 1003,8 hPa 0,0 l/m 0 min 0 min 0,0 UV-I 0 W/m 12,9 km/h (3 Bft)
30.01.2014 03:28 1,6 C 0,6 C 82 % 1003,9 hPa 0,0 l/m 0 min 0 min 0,0 UV-I 0 W/m 12,9 km/h (3 Bft)
30.01.2014 03:30 1,6 C 0,6 C 82 % 1003,8 hPa 0,0 l/m 0 min 0 min 0,0 UV-I 0 W/m 5,1 km/h (1 Bft)
30.01.2014 03:32 1,6 C 0,6 C 82 % 1003,9 hPa 0,0 l/m 0 min 0 min 0,0 UV-I 0 W/m 12,9 km/h (3 Bft)
30.01.2014 03:34 1,6 C 0,6 C 82 % 1003,9 hPa 0,0 l/m 0 min 0 min 0,0 UV-I 0 W/m 23,2 km/h (4 Bft)
30.01.2014 03:36 1,6 C 0,6 C 82 % 1003,8 hPa 0,0 l/m 0 min 0 min 0,0 UV-I 0 W/m 5,1 km/h (1 Bft)
30.01.2014 03:38 1,6 C 0,6 C 82 % 1003,8 hPa 0,0 l/m 0 min 0 min 0,0 UV-I 0 W/m 7,7 km/h (2 Bft)
30.01.2014 03:40 1,6 C 0,6 C 82 % 1003,9 hPa 0,0 l/m 0 min 0 min 0,0 UV-I 0 W/m 5,1 km/h (1 Bft)
30.01.2014 03:42 1,6 C 0,6 C 82 % 1003,9 hPa 0,0 l/m 0 min 0 min 0,0 UV-I 0 W/m 18,0 km/h (3 Bft)
30.01.2014 03:44 1,6 C 0,6 C 82 % 1003,9 hPa 0,0 l/m 0 min 0 min 0,0 UV-I 0 W/m 20,6 km/h (4 Bft)
30.01.2014 03:46 1,6 C 0,6 C 82 % 1004,0 hPa 0,0 l/m 0 min 0 min 0,0 UV-I 0 W/m 10,3 km/h (2 Bft)
30.01.2014 03:48 1,6 C 0,6 C 82 % 1004,0 hPa 0,0 l/m 0 min 0 min 0,0 UV-I 0 W/m 7,7 km/h (2 Bft)
30.01.2014 03:50 1,6 C 0,6 C 82 % 1004,0 hPa 0,0 l/m 0 min 0 min 0,0 UV-I 0 W/m 0,0 km/h (0 Bft)
30.01.2014 03:52 1,6 C 0,6 C 82 % 1003,9 hPa 0,0 l/m 0 min 0 min 0,0 UV-I 0 W/m 10,3 km/h (2 Bft)
30.01.2014 03:54 1,6 C 0,6 C 82 % 1003,9 hPa 0,0 l/m 0 min 0 min 0,0 UV-I 0 W/m 7,7 km/h (2 Bft)
30.01.2014 03:56 1,5 C 0,6 C 82 % 1004,0 hPa 0,0 l/m 0 min 0 min 0,0 UV-I 0 W/m 12,9 km/h (3 Bft)
30.01.2014 03:58 1,5 C 0,6 C 82 % 1003,9 hPa 0,0 l/m 0 min 0 min 0,0 UV-I 0 W/m 12,9 km/h (3 Bft)
30.01.2014 04:00 1,6 C 0,6 C 82 % 1003,9 hPa 0,0 l/m 0 min 0 min 0,0 UV-I 0 W/m 12,9 km/h (3 Bft)
30.01.2014 04:02 1,5 C 0,6 C 82 % 1003,9 hPa 0,0 l/m 0 min 0 min 0,0 UV-I 0 W/m 7,7 km/h (2 Bft)
30.01.2014 04:04 1,5 C 0,6 C 82 % 1003,9 hPa 0,0 l/m 0 min 0 min 0,0 UV-I 0 W/m 5,1 km/h (1 Bft)
30.01.2014 04:06 1,5 C 0,6 C 82 % 1003,9 hPa 0,0 l/m 0 min 0 min 0,0 UV-I 0 W/m 10,3 km/h (2 Bft)
30.01.2014 04:08 1,5 C 0,6 C 82 % 1003,9 hPa 0,0 l/m 0 min 0 min 0,0 UV-I 0 W/m 10,3 km/h (2 Bft)
30.01.2014 04:10 1,5 C 0,0 C 82 % 1004,0 hPa 0,0 l/m 0 min 0 min 0,0 UV-I 0 W/m 12,9 km/h (3 Bft)
30.01.2014 04:12 1,4 C 0,0 C 82 % 1003,9 hPa 0,0 l/m 0 min 0 min 0,0 UV-I 0 W/m 10,3 km/h (2 Bft)
30.01.2014 04:14 1,4 C 0,0 C 82 % 1003,9 hPa 0,0 l/m 0 min 0 min 0,0 UV-I 0 W/m 12,9 km/h (3 Bft)
30.01.2014 04:16 1,4 C 0,0 C 82 % 1003,9 hPa 0,0 l/m 0 min 0 min 0,0 UV-I 0 W/m 15,4 km/h (3 Bft)
30.01.2014 04:18 1,4 C 0,0 C 82 % 1003,9 hPa 0,0 l/m 0 min 0 min 0,0 UV-I 0 W/m 15,4 km/h (3 Bft)
30.01.2014 04:20 1,4 C 0,0 C 82 % 1003,9 hPa 0,0 l/m 0 min 0 min 0,0 UV-I 0 W/m 12,9 km/h (3 Bft)
30.01.2014 04:22 1,4 C 0,0 C 82 % 1003,8 hPa 0,0 l/m 0 min 0 min 0,0 UV-I 0 W/m 15,4 km/h (3 Bft)
30.01.2014 04:24 1,4 C 0,0 C 82 % 1003,8 hPa 0,0 l/m 0 min 0 min 0,0 UV-I 0 W/m 10,3 km/h (2 Bft)
30.01.2014 04:26 1,3 C 0,0 C 82 % 1003,8 hPa 0,0 l/m 0 min 0 min 0,0 UV-I 0 W/m 12,9 km/h (3 Bft)
30.01.2014 04:28 1,3 C 0,0 C 82 % 1003,9 hPa 0,0 l/m 0 min 0 min 0,0 UV-I 0 W/m 10,3 km/h (2 Bft)
30.01.2014 04:30 1,2 C 0,0 C 83 % 1003,9 hPa 0,0 l/m 0 min 0 min 0,0 UV-I 0 W/m 10,3 km/h (2 Bft)
30.01.2014 04:32 1,2 C 0,0 C 83 % 1003,9 hPa 0,0 l/m 0 min 0 min 0,0 UV-I 0 W/m 10,3 km/h (2 Bft)
30.01.2014 04:34 1,2 C 0,0 C 83 % 1003,9 hPa 0,0 l/m 0 min 0 min 0,0 UV-I 0 W/m 20,6 km/h (4 Bft)
30.01.2014 04:36 1,1 C 0,0 C 83 % 1003,9 hPa 0,0 l/m 0 min 0 min 0,0 UV-I 0 W/m 18,0 km/h (3 Bft)
30.01.2014 04:38 1,1 C -0,6 C 83 % 1003,9 hPa 0,0 l/m 0 min 0 min 0,0 UV-I 0 W/m 7,7 km/h (2 Bft)
30.01.2014 04:40 1,1 C -0,6 C 83 % 1003,9 hPa 0,0 l/m 0 min 0 min 0,0 UV-I 0 W/m 15,4 km/h (3 Bft)
30.01.2014 04:42 1,0 C -0,6 C 83 % 1004,0 hPa 0,0 l/m 0 min 0 min 0,0 UV-I 0 W/m 12,9 km/h (3 Bft)
30.01.2014 04:44 1,0 C -0,6 C 83 % 1003,9 hPa 0,0 l/m 0 min 0 min 0,0 UV-I 0 W/m 5,1 km/h (1 Bft)
30.01.2014 04:46 0,9 C -0,6 C 83 % 1003,9 hPa 0,0 l/m 0 min 0 min 0,0 UV-I 0 W/m 12,9 km/h (3 Bft)
30.01.2014 04:48 0,9 C -0,6 C 83 % 1004,0 hPa 0,0 l/m 0 min 0 min 0,0 UV-I 0 W/m 10,3 km/h (2 Bft)
30.01.2014 04:50 0,9 C -0,6 C 83 % 1004,0 hPa 0,0 l/m 0 min 0 min 0,0 UV-I 0 W/m 18,0 km/h (3 Bft)
30.01.2014 04:52 0,9 C -0,6 C 83 % 1004,0 hPa 0,0 l/m 0 min 0 min 0,0 UV-I 0 W/m 5,1 km/h (1 Bft)
30.01.2014 04:54 0,9 C -0,6 C 83 % 1004,0 hPa 0,0 l/m 0 min 0 min 0,0 UV-I 0 W/m 12,9 km/h (3 Bft)
30.01.2014 04:56 0,8 C -0,6 C 84 % 1004,0 hPa 0,0 l/m 0 min 0 min 0,0 UV-I 0 W/m 10,3 km/h (2 Bft)
30.01.2014 04:58 0,8 C -0,6 C 84 % 1004,0 hPa 0,0 l/m 0 min 0 min 0,0 UV-I 0 W/m 7,7 km/h (2 Bft)
30.01.2014 05:00 0,7 C -0,6 C 84 % 1004,0 hPa 0,0 l/m 0 min 0 min 0,0 UV-I 0 W/m 12,9 km/h (3 Bft)
30.01.2014 05:02 0,7 C -0,6 C 84 % 1003,9 hPa 0,0 l/m 0 min 0 min 0,0 UV-I 0 W/m 10,3 km/h (2 Bft)
30.01.2014 05:04 0,7 C -0,6 C 84 % 1004,0 hPa 0,0 l/m 0 min 0 min 0,0 UV-I 0 W/m 5,1 km/h (1 Bft)
30.01.2014 05:06 0,7 C -0,6 C 84 % 1004,0 hPa 0,0 l/m 0 min 0 min 0,0 UV-I 0 W/m 7,7 km/h (2 Bft)
30.01.2014 05:08 0,6 C -0,6 C 84 % 1004,1 hPa 0,0 l/m 0 min 0 min 0,0 UV-I 0 W/m 7,7 km/h (2 Bft)
30.01.2014 05:10 0,6 C -0,6 C 84 % 1004,1 hPa 0,0 l/m 0 min 0 min 0,0 UV-I 0 W/m 20,6 km/h (4 Bft)
30.01.2014 05:12 0,7 C -0,6 C 85 % 1004,1 hPa 0,0 l/m 0 min 0 min 0,0 UV-I 0 W/m 7,7 km/h (2 Bft)
30.01.2014 05:14 0,7 C -0,6 C 85 % 1004,1 hPa 0,0 l/m 0 min 0 min 0,0 UV-I 0 W/m 7,7 km/h (2 Bft)
30.01.2014 05:16 0,7 C -0,6 C 85 % 1004,1 hPa 0,0 l/m 0 min 0 min 0,0 UV-I 0 W/m 12,9 km/h (3 Bft)
30.01.2014 05:18 0,6 C -0,6 C 85 % 1004,1 hPa 0,0 l/m 0 min 0 min 0,0 UV-I 0 W/m 12,9 km/h (3 Bft)
30.01.2014 05:20 0,6 C -0,6 C 85 % 1004,0 hPa 0,0 l/m 0 min 0 min 0,0 UV-I 0 W/m 10,3 km/h (2 Bft)
30.01.2014 05:22 0,7 C -0,6 C 85 % 1004,1 hPa 0,0 l/m 0 min 0 min 0,0 UV-I 0 W/m 7,7 km/h (2 Bft)
30.01.2014 05:24 0,7 C -0,6 C 85 % 1004,1 hPa 0,0 l/m 0 min 0 min 0,0 UV-I 0 W/m 7,7 km/h (2 Bft)
30.01.2014 05:26 0,6 C -0,6 C 85 % 1004,1 hPa 0,0 l/m 0 min 0 min 0,0 UV-I 0 W/m 10,3 km/h (2 Bft)
30.01.2014 05:28 0,6 C -0,6 C 85 % 1004,1 hPa 0,0 l/m 0 min 0 min 0,0 UV-I 0 W/m 7,7 km/h (2 Bft)
30.01.2014 05:30 0,6 C -0,6 C 85 % 1004,1 hPa 0,0 l/m 0 min 0 min 0,0 UV-I 0 W/m 10,3 km/h (2 Bft)
30.01.2014 05:32 0,5 C -1,1 C 85 % 1004,1 hPa 0,0 l/m 0 min 0 min 0,0 UV-I 0 W/m 7,7 km/h (2 Bft)
30.01.2014 05:34 0,5 C -1,1 C 85 % 1004,1 hPa 0,0 l/m 0 min 0 min 0,0 UV-I 0 W/m 7,7 km/h (2 Bft)
30.01.2014 05:36 0,5 C -1,1 C 85 % 1004,1 hPa 0,0 l/m 0 min 0 min 0,0 UV-I 0 W/m 10,3 km/h (2 Bft)
30.01.2014 05:38 0,5 C -1,1 C 85 % 1004,1 hPa 0,0 l/m 0 min 0 min 0,0 UV-I 0 W/m 10,3 km/h (2 Bft)
30.01.2014 05:40 0,5 C -1,1 C 85 % 1004,2 hPa 0,0 l/m 0 min 0 min 0,0 UV-I 0 W/m 7,7 km/h (2 Bft)
30.01.2014 05:42 0,5 C -1,1 C 85 % 1004,2 hPa 0,0 l/m 0 min 0 min 0,0 UV-I 0 W/m 12,9 km/h (3 Bft)
30.01.2014 05:44 0,5 C -1,1 C 85 % 1004,2 hPa 0,0 l/m 0 min 0 min 0,0 UV-I 0 W/m 7,7 km/h (2 Bft)
30.01.2014 05:46 0,4 C -1,1 C 85 % 1004,2 hPa 0,0 l/m 0 min 0 min 0,0 UV-I 0 W/m 7,7 km/h (2 Bft)
30.01.2014 05:48 0,4 C -1,1 C 85 % 1004,2 hPa 0,0 l/m 0 min 0 min 0,0 UV-I 0 W/m 7,7 km/h (2 Bft)
30.01.2014 05:50 0,4 C -1,1 C 85 % 1004,3 hPa 0,0 l/m 0 min 0 min 0,0 UV-I 0 W/m 10,3 km/h (2 Bft)
30.01.2014 05:52 0,4 C -1,1 C 85 % 1004,2 hPa 0,0 l/m 0 min 0 min 0,0 UV-I 0 W/m 12,9 km/h (3 Bft)
30.01.2014 05:54 0,4 C -1,1 C 85 % 1004,2 hPa 0,0 l/m 0 min 0 min 0,0 UV-I 0 W/m 10,3 km/h (2 Bft)
30.01.2014 05:56 0,4 C -1,1 C 86 % 1004,2 hPa 0,0 l/m 0 min 0 min 0,0 UV-I 0 W/m 7,7 km/h (2 Bft)
30.01.2014 05:58 0,4 C -1,1 C 86 % 1004,2 hPa 0,0 l/m 0 min 0 min 0,0 UV-I 0 W/m 10,3 km/h (2 Bft)
30.01.2014 06:00 0,4 C -1,1 C 86 % 1004,2 hPa 0,0 l/m 0 min 0 min 0,0 UV-I 0 W/m 7,7 km/h (2 Bft)
30.01.2014 06:02 0,4 C -1,1 C 86 % 1004,2 hPa 0,0 l/m 0 min 0 min 0,0 UV-I 0 W/m 7,7 km/h (2 Bft)
30.01.2014 06:04 0,5 C -0,6 C 86 % 1004,3 hPa 0,0 l/m 0 min 0 min 0,0 UV-I 0 W/m 10,3 km/h (2 Bft)
30.01.2014 06:06 0,5 C -0,6 C 86 % 1004,2 hPa 0,0 l/m 0 min 0 min 0,0 UV-I 0 W/m 7,7 km/h (2 Bft)
30.01.2014 06:08 0,5 C -0,6 C 86 % 1004,2 hPa 0,0 l/m 0 min 0 min 0,0 UV-I 0 W/m 7,7 km/h (2 Bft)
30.01.2014 06:10 0,5 C -0,6 C 86 % 1004,2 hPa 0,0 l/m 0 min 0 min 0,0 UV-I 0 W/m 2,6 km/h (1 Bft)
30.01.2014 06:12 0,5 C -0,6 C 86 % 1004,3 hPa 0,0 l/m 0 min 0 min 0,0 UV-I 0 W/m 0,0 km/h (0 Bft)
30.01.2014 06:14 0,5 C -0,6 C 86 % 1004,3 hPa 0,0 l/m 0 min 0 min 0,0 UV-I 0 W/m 2,6 km/h (1 Bft)
30.01.2014 06:16 0,5 C -0,6 C 86 % 1004,3 hPa 0,0 l/m 0 min 0 min 0,0 UV-I 0 W/m 7,7 km/h (2 Bft)
30.01.2014 06:18 0,5 C -0,6 C 86 % 1004,3 hPa 0,0 l/m 0 min 0 min 0,0 UV-I 0 W/m 7,7 km/h (2 Bft)
30.01.2014 06:20 0,6 C -0,6 C 86 % 1004,2 hPa 0,0 l/m 0 min 0 min 0,0 UV-I 0 W/m 5,1 km/h (1 Bft)
30.01.2014 06:22 0,6 C -0,6 C 86 % 1004,3 hPa 0,0 l/m 0 min 0 min 0,0 UV-I 0 W/m 5,1 km/h (1 Bft)
30.01.2014 06:24 0,6 C -0,6 C 86 % 1004,2 hPa 0,0 l/m 0 min 0 min 0,0 UV-I 0 W/m 7,7 km/h (2 Bft)
30.01.2014 06:26 0,6 C -0,6 C 86 % 1004,2 hPa 0,0 l/m 0 min 0 min 0,0 UV-I 0 W/m 0,0 km/h (0 Bft)
30.01.2014 06:28 0,6 C -0,6 C 86 % 1004,3 hPa 0,0 l/m 0 min 0 min 0,0 UV-I 0 W/m 7,7 km/h (2 Bft)
30.01.2014 06:30 0,6 C -0,6 C 86 % 1004,3 hPa 0,0 l/m 0 min 0 min 0,0 UV-I 0 W/m 2,6 km/h (1 Bft)
30.01.2014 06:32 0,6 C -0,6 C 86 % 1004,2 hPa 0,0 l/m 0 min 0 min 0,0 UV-I 0 W/m 10,3 km/h (2 Bft)
30.01.2014 06:34 0,6 C -0,6 C 86 % 1004,2 hPa 0,0 l/m 0 min 0 min 0,0 UV-I 0 W/m 10,3 km/h (2 Bft)
30.01.2014 06:36 0,6 C -0,6 C 86 % 1004,2 hPa 0,0 l/m 0 min 0 min 0,0 UV-I 0 W/m 5,1 km/h (1 Bft)
30.01.2014 06:38 0,6 C -0,6 C 86 % 1004,2 hPa 0,0 l/m 0 min 0 min 0,0 UV-I 0 W/m 12,9 km/h (3 Bft)
30.01.2014 06:40 0,6 C -0,6 C 86 % 1004,2 hPa 0,0 l/m 0 min 0 min 0,0 UV-I 0 W/m 7,7 km/h (2 Bft)
30.01.2014 06:42 0,7 C -0,6 C 86 % 1004,2 hPa 0,0 l/m 0 min 0 min 0,0 UV-I 0 W/m 10,3 km/h (2 Bft)
30.01.2014 06:44 0,7 C -0,6 C 86 % 1004,3 hPa 0,0 l/m 0 min 0 min 0,0 UV-I 0 W/m 12,9 km/h (3 Bft)
30.01.2014 06:46 0,7 C -0,6 C 85 % 1004,4 hPa 0,0 l/m 0 min 0 min 0,0 UV-I 0 W/m 7,7 km/h (2 Bft)
30.01.2014 06:48 0,7 C -0,6 C 85 % 1004,3 hPa 0,0 l/m 0 min 0 min 0,0 UV-I 0 W/m 5,1 km/h (1 Bft)
30.01.2014 06:50 0,8 C -0,6 C 85 % 1004,3 hPa 0,0 l/m 0 min 0 min 0,0 UV-I 0 W/m 10,3 km/h (2 Bft)
30.01.2014 06:52 0,8 C -0,6 C 85 % 1004,4 hPa 0,0 l/m 0 min 0 min 0,0 UV-I 0 W/m 10,3 km/h (2 Bft)
30.01.2014 06:54 0,8 C 0,0 C 85 % 1004,5 hPa 0,0 l/m 0 min 0 min 0,0 UV-I 0 W/m 2,6 km/h (1 Bft)
30.01.2014 06:56 0,8 C 0,0 C 85 % 1004,5 hPa 0,0 l/m 0 min 0 min 0,0 UV-I 0 W/m 2,6 km/h (1 Bft)
30.01.2014 06:58 0,9 C 0,0 C 85 % 1004,6 hPa 0,0 l/m 0 min 0 min 0,0 UV-I 0 W/m 5,1 km/h (1 Bft)
30.01.2014 07:00 0,9 C 0,0 C 85 % 1004,6 hPa 0,0 l/m 0 min 0 min 0,0 UV-I 0 W/m 0,0 km/h (0 Bft)
30.01.2014 07:02 0,9 C 0,0 C 85 % 1004,5 hPa 0,0 l/m 0 min 0 min 0,0 UV-I 0 W/m 10,3 km/h (2 Bft)
30.01.2014 07:04 1,0 C 0,0 C 85 % 1004,6 hPa 0,0 l/m 0 min 0 min 0,0 UV-I 0 W/m 0,0 km/h (0 Bft)
30.01.2014 07:06 1,0 C 0,0 C 85 % 1004,6 hPa 0,0 l/m 0 min 0 min 0,0 UV-I 0 W/m 0,0 km/h (0 Bft)
30.01.2014 07:08 1,0 C 0,0 C 85 % 1004,6 hPa 0,0 l/m 0 min 0 min 0,0 UV-I 0 W/m 5,1 km/h (1 Bft)
30.01.2014 07:10 1,1 C 0,0 C 85 % 1004,6 hPa 0,0 l/m 0 min 0 min 0,0 UV-I 0 W/m 5,1 km/h (1 Bft)
30.01.2014 07:12 1,1 C 0,0 C 85 % 1004,5 hPa 0,0 l/m 0 min 0 min 0,0 UV-I 0 W/m 12,9 km/h (3 Bft)
30.01.2014 07:14 1,1 C 0,0 C 85 % 1004,6 hPa 0,0 l/m 0 min 0 min 0,0 UV-I 0 W/m 10,3 km/h (2 Bft)
30.01.2014 07:16 1,2 C 0,0 C 85 % 1004,6 hPa 0,0 l/m 0 min 0 min 0,0 UV-I 0 W/m 7,7 km/h (2 Bft)
30.01.2014 07:18 1,2 C 0,0 C 85 % 1004,6 hPa 0,0 l/m 0 min 0 min 0,0 UV-I 0 W/m 10,3 km/h (2 Bft)
30.01.2014 07:20 1,2 C 0,0 C 85 % 1004,6 hPa 0,0 l/m 0 min 0 min 0,0 UV-I 0 W/m 12,9 km/h (3 Bft)
30.01.2014 07:22 1,2 C 0,0 C 84 % 1004,6 hPa 0,0 l/m 0 min 0 min 0,0 UV-I 0 W/m 2,6 km/h (1 Bft)
30.01.2014 07:24 1,3 C 0,0 C 84 % 1004,6 hPa 0,0 l/m 0 min 0 min 0,0 UV-I 0 W/m 10,3 km/h (2 Bft)
30.01.2014 07:26 1,3 C 0,0 C 84 % 1004,7 hPa 0,0 l/m 0 min 0 min 0,0 UV-I 0 W/m 15,4 km/h (3 Bft)
30.01.2014 07:28 1,3 C 0,0 C 84 % 1004,7 hPa 0,0 l/m 0 min 0 min 0,0 UV-I 0 W/m 10,3 km/h (2 Bft)
30.01.2014 07:30 1,3 C 0,0 C 84 % 1004,7 hPa 0,0 l/m 0 min 0 min 0,0 UV-I 0 W/m 5,1 km/h (1 Bft)
30.01.2014 07:32 1,3 C 0,0 C 84 % 1004,7 hPa 0,0 l/m 0 min 0 min 0,0 UV-I 0 W/m 10,3 km/h (2 Bft)
30.01.2014 07:34 1,3 C 0,0 C 84 % 1004,7 hPa 0,0 l/m 0 min 0 min 0,0 UV-I 0 W/m 12,9 km/h (3 Bft)
30.01.2014 07:36 1,3 C 0,0 C 84 % 1004,6 hPa 0,0 l/m 0 min 0 min 0,0 UV-I 0 W/m 7,7 km/h (2 Bft)
30.01.2014 07:38 1,3 C 0,0 C 84 % 1004,7 hPa 0,0 l/m 0 min 0 min 0,0 UV-I 0 W/m 5,1 km/h (1 Bft)
30.01.2014 07:40 1,3 C 0,0 C 84 % 1004,7 hPa 0,0 l/m 0 min 0 min 0,0 UV-I 0 W/m 18,0 km/h (3 Bft)
30.01.2014 07:42 1,3 C 0,0 C 84 % 1004,8 hPa 0,0 l/m 0 min 0 min 0,0 UV-I 0 W/m 5,1 km/h (1 Bft)
30.01.2014 07:44 1,3 C 0,0 C 84 % 1004,8 hPa 0,0 l/m 0 min 0 min 0,0 UV-I 0 W/m 12,9 km/h (3 Bft)
30.01.2014 07:46 1,3 C 0,0 C 84 % 1004,8 hPa 0,0 l/m 0 min 0 min 0,0 UV-I 0 W/m 5,1 km/h (1 Bft)
30.01.2014 07:48 1,3 C 0,0 C 84 % 1004,9 hPa 0,0 l/m 0 min 0 min 0,0 UV-I 0 W/m 10,3 km/h (2 Bft)
30.01.2014 07:50 1,3 C 0,0 C 84 % 1004,9 hPa 0,0 l/m 0 min 0 min 0,0 UV-I 0 W/m 12,9 km/h (3 Bft)
30.01.2014 07:52 1,3 C 0,0 C 84 % 1004,9 hPa 0,0 l/m 0 min 0 min 0,0 UV-I 0 W/m 10,3 km/h (2 Bft)
30.01.2014 07:54 1,3 C 0,0 C 84 % 1005,0 hPa 0,0 l/m 0 min 0 min 0,0 UV-I 0 W/m 10,3 km/h (2 Bft)
30.01.2014 07:56 1,3 C 0,0 C 84 % 1005,0 hPa 0,0 l/m 0 min 0 min 0,0 UV-I 0 W/m 10,3 km/h (2 Bft)
30.01.2014 07:58 1,2 C 0,0 C 84 % 1005,1 hPa 0,0 l/m 0 min 0 min 0,0 UV-I 0 W/m 5,1 km/h (1 Bft)
30.01.2014 08:00 1,2 C 0,0 C 84 % 1005,1 hPa 0,0 l/m 0 min 0 min 0,0 UV-I 0 W/m 12,9 km/h (3 Bft)
30.01.2014 08:02 1,2 C 0,0 C 84 % 1005,1 hPa 0,0 l/m 0 min 0 min 0,0 UV-I 0 W/m 15,4 km/h (3 Bft)
30.01.2014 08:04 1,2 C 0,0 C 84 % 1005,1 hPa 0,0 l/m 0 min 0 min 0,0 UV-I 0 W/m 5,1 km/h (1 Bft)
30.01.2014 08:06 1,2 C -0,6 C 84 % 1005,2 hPa 0,0 l/m 0 min 0 min 0,0 UV-I 0 W/m 2,6 km/h (1 Bft)
30.01.2014 08:08 1,1 C -0,6 C 84 % 1005,2 hPa 0,0 l/m 0 min 0 min 0,0 UV-I 0 W/m 0,0 km/h (0 Bft)
30.01.2014 08:10 1,1 C -0,6 C 84 % 1005,2 hPa 0,0 l/m 0 min 0 min 0,0 UV-I 0 W/m 10,3 km/h (2 Bft)
30.01.2014 08:12 1,1 C -0,6 C 84 % 1005,2 hPa 0,0 l/m 0 min 0 min 0,0 UV-I 0 W/m 7,7 km/h (2 Bft)
30.01.2014 08:14 1,1 C 0,0 C 84 % 1005,2 hPa 0,0 l/m 0 min 0 min 0,0 UV-I 0 W/m 7,7 km/h (2 Bft)
30.01.2014 08:16 1,1 C -0,6 C 84 % 1005,2 hPa 0,0 l/m 0 min 0 min 0,0 UV-I 5 W/m 0,0 km/h (0 Bft)
30.01.2014 08:18 1,1 C 0,0 C 84 % 1005,1 hPa 0,0 l/m 0 min 0 min 0,0 UV-I 5 W/m 10,3 km/h (2 Bft)
30.01.2014 08:20 1,1 C -0,6 C 84 % 1005,1 hPa 0,0 l/m 0 min 0 min 0,0 UV-I 5 W/m 15,4 km/h (3 Bft)
30.01.2014 08:22 1,1 C 0,0 C 84 % 1005,2 hPa 0,0 l/m 0 min 0 min 0,0 UV-I 7 W/m 12,9 km/h (3 Bft)
30.01.2014 08:24 1,1 C 0,0 C 84 % 1005,2 hPa 0,0 l/m 0 min 0 min 0,0 UV-I 7 W/m 12,9 km/h (3 Bft)
30.01.2014 08:26 1,1 C 0,0 C 84 % 1005,2 hPa 0,0 l/m 0 min 0 min 0,0 UV-I 9 W/m 12,9 km/h (3 Bft)
30.01.2014 08:28 1,1 C -0,6 C 84 % 1005,3 hPa 0,0 l/m 0 min 0 min 0,0 UV-I 9 W/m 15,4 km/h (3 Bft)
30.01.2014 08:30 1,0 C -0,6 C 84 % 1005,2 hPa 0,0 l/m 0 min 0 min 0,0 UV-I 12 W/m 12,9 km/h (3 Bft)
30.01.2014 08:32 1,0 C -0,6 C 84 % 1005,3 hPa 0,0 l/m 0 min 0 min 0,0 UV-I 12 W/m 10,3 km/h (2 Bft)
30.01.2014 08:34 1,0 C -0,6 C 84 % 1005,3 hPa 0,0 l/m 0 min 0 min 0,0 UV-I 14 W/m 18,0 km/h (3 Bft)
30.01.2014 08:36 1,0 C 0,0 C 84 % 1005,2 hPa 0,0 l/m 0 min 0 min 0,0 UV-I 16 W/m 12,9 km/h (3 Bft)
30.01.2014 08:38 1,0 C 0,0 C 84 % 1005,4 hPa 0,0 l/m 0 min 0 min 0,0 UV-I 18 W/m 12,9 km/h (3 Bft)
30.01.2014 08:40 1,0 C 0,0 C 84 % 1005,3 hPa 0,0 l/m 0 min 0 min 0,0 UV-I 19 W/m 7,7 km/h (2 Bft)
30.01.2014 08:42 0,9 C -0,6 C 84 % 1005,3 hPa 0,0 l/m 0 min 0 min 0,0 UV-I 19 W/m 7,7 km/h (2 Bft)
30.01.2014 08:44 0,9 C -0,6 C 84 % 1005,4 hPa 0,0 l/m 0 min 0 min 0,0 UV-I 19 W/m 7,7 km/h (2 Bft)
30.01.2014 08:46 0,9 C -0,6 C 84 % 1005,4 hPa 0,0 l/m 0 min 0 min 0,0 UV-I 19 W/m 7,7 km/h (2 Bft)
30.01.2014 08:48 0,9 C -0,6 C 84 % 1005,4 hPa 0,0 l/m 0 min 0 min 0,0 UV-I 19 W/m 10,3 km/h (2 Bft)
30.01.2014 08:50 0,9 C -0,6 C 84 % 1005,3 hPa 0,0 l/m 0 min 0 min 0,0 UV-I 21 W/m 10,3 km/h (2 Bft)
30.01.2014 08:52 0,9 C -0,6 C 84 % 1005,3 hPa 0,0 l/m 0 min 0 min 0,0 UV-I 21 W/m 5,1 km/h (1 Bft)
30.01.2014 08:54 0,9 C -0,6 C 84 % 1005,3 hPa 0,0 l/m 0 min 0 min 0,0 UV-I 23 W/m 0,0 km/h (0 Bft)
30.01.2014 08:56 0,9 C -0,6 C 84 % 1005,3 hPa 0,0 l/m 0 min 0 min 0,0 UV-I 23 W/m 2,6 km/h (1 Bft)
30.01.2014 08:58 0,9 C -0,6 C 84 % 1005,4 hPa 0,0 l/m 0 min 0 min 0,0 UV-I 25 W/m 5,1 km/h (1 Bft)
30.01.2014 09:00 0,9 C -0,6 C 84 % 1005,4 hPa 0,0 l/m 0 min 0 min 0,0 UV-I 25 W/m 0,0 km/h (0 Bft)
30.01.2014 09:02 0,9 C -0,6 C 84 % 1005,5 hPa 0,0 l/m 0 min 0 min 0,0 UV-I 25 W/m 5,1 km/h (1 Bft)
30.01.2014 09:04 0,9 C -0,6 C 84 % 1005,5 hPa 0,0 l/m 0 min 0 min 0,0 UV-I 25 W/m 0,0 km/h (0 Bft)
30.01.2014 09:06 0,9 C -0,6 C 84 % 1005,5 hPa 0,0 l/m 0 min 0 min 0,0 UV-I 25 W/m 2,6 km/h (1 Bft)
30.01.2014 09:08 0,9 C -0,6 C 84 % 1005,6 hPa 0,0 l/m 0 min 0 min 0,0 UV-I 26 W/m 10,3 km/h (2 Bft)
30.01.2014 09:10 0,9 C -0,6 C 84 % 1005,6 hPa 0,0 l/m 0 min 0 min 0,0 UV-I 26 W/m 0,0 km/h (0 Bft)
30.01.2014 09:12 0,9 C -0,6 C 84 % 1005,6 hPa 0,0 l/m 0 min 0 min 0,0 UV-I 28 W/m 0,0 km/h (0 Bft)
30.01.2014 09:14 0,9 C -0,6 C 84 % 1005,5 hPa 0,0 l/m 0 min 0 min 0,0 UV-I 28 W/m 10,3 km/h (2 Bft)
30.01.2014 09:16 0,9 C -0,6 C 85 % 1005,6 hPa 0,0 l/m 0 min 0 min 0,0 UV-I 30 W/m 0,0 km/h (0 Bft)
30.01.2014 09:18 0,9 C -0,6 C 85 % 1005,6 hPa 0,0 l/m 0 min 0 min 0,0 UV-I 30 W/m 0,0 km/h (0 Bft)
30.01.2014 09:20 0,9 C -0,6 C 85 % 1005,6 hPa 0,0 l/m 0 min 0 min 0,0 UV-I 30 W/m 10,3 km/h (2 Bft)
30.01.2014 09:22 0,9 C -0,6 C 85 % 1005,6 hPa 0,0 l/m 0 min 0 min 0,0 UV-I 30 W/m 0,0 km/h (0 Bft)
30.01.2014 09:24 0,9 C -0,6 C 85 % 1005,7 hPa 0,0 l/m 0 min 0 min 0,0 UV-I 32 W/m 0,0 km/h (0 Bft)
30.01.2014 09:26 0,9 C -0,6 C 85 % 1005,7 hPa 0,0 l/m 0 min 0 min 0,0 UV-I 32 W/m 0,0 km/h (0 Bft)
30.01.2014 09:28 0,8 C -0,6 C 85 % 1005,7 hPa 0,0 l/m 0 min 0 min 0,0 UV-I 33 W/m 2,6 km/h (1 Bft)
30.01.2014 09:30 0,8 C -0,6 C 85 % 1005,7 hPa 0,0 l/m 0 min 0 min 0,0 UV-I 33 W/m 0,0 km/h (0 Bft)
30.01.2014 09:32 0,8 C -0,6 C 85 % 1005,8 hPa 0,0 l/m 0 min 0 min 0,0 UV-I 35 W/m 0,0 km/h (0 Bft)
30.01.2014 09:34 0,8 C -0,6 C 85 % 1005,8 hPa 0,0 l/m 0 min 0 min 0,0 UV-I 37 W/m 0,0 km/h (0 Bft)
30.01.2014 09:36 0,9 C -0,6 C 85 % 1005,9 hPa 0,0 l/m 0 min 0 min 0,0 UV-I 39 W/m 2,6 km/h (1 Bft)
30.01.2014 09:38 0,9 C -0,6 C 85 % 1005,8 hPa 0,0 l/m 0 min 0 min 0,0 UV-I 39 W/m 0,0 km/h (0 Bft)
30.01.2014 09:40 0,9 C -0,6 C 85 % 1005,8 hPa 0,0 l/m 0 min 0 min 0,0 UV-I 42 W/m 0,0 km/h (0 Bft)
30.01.2014 09:42 0,9 C -0,6 C 85 % 1005,8 hPa 0,0 l/m 0 min 0 min 0,0 UV-I 42 W/m 7,7 km/h (2 Bft)
30.01.2014 09:44 0,9 C -0,6 C 85 % 1005,8 hPa 0,0 l/m 0 min 0 min 0,0 UV-I 46 W/m 10,3 km/h (2 Bft)
30.01.2014 09:46 1,0 C 0,0 C 85 % 1005,8 hPa 0,0 l/m 0 min 0 min 0,0 UV-I 53 W/m 7,7 km/h (2 Bft)
30.01.2014 09:48 1,1 C 0,0 C 85 % 1005,9 hPa 0,0 l/m 0 min 0 min 0,0 UV-I 56 W/m 2,6 km/h (1 Bft)
30.01.2014 09:50 1,1 C 0,0 C 85 % 1005,8 hPa 0,0 l/m 0 min 0 min 0,0 UV-I 60 W/m 7,7 km/h (2 Bft)
30.01.2014 09:52 1,2 C 0,0 C 85 % 1005,8 hPa 0,0 l/m 0 min 0 min 0,0 UV-I 67 W/m 2,6 km/h (1 Bft)
30.01.2014 09:54 1,3 C 0,6 C 85 % 1005,9 hPa 0,0 l/m 0 min 0 min 0,0 UV-I 67 W/m 0,0 km/h (0 Bft)
30.01.2014 09:56 1,4 C 0,6 C 85 % 1005,8 hPa 0,0 l/m 0 min 0 min 0,0 UV-I 62 W/m 0,0 km/h (0 Bft)
30.01.2014 09:58 1,4 C 0,6 C 84 % 1005,8 hPa 0,0 l/m 0 min 0 min 0,0 UV-I 56 W/m 0,0 km/h (0 Bft)
30.01.2014 10:00 1,5 C 0,6 C 84 % 1005,8 hPa 0,0 l/m 0 min 0 min 0,0 UV-I 54 W/m 5,1 km/h (1 Bft)
30.01.2014 10:02 1,5 C 0,6 C 84 % 1005,9 hPa 0,0 l/m 0 min 0 min 0,0 UV-I 54 W/m 5,1 km/h (1 Bft)
30.01.2014 10:04 1,6 C 0,6 C 84 % 1005,9 hPa 0,0 l/m 0 min 0 min 0,0 UV-I 54 W/m 7,7 km/h (2 Bft)
30.01.2014 10:06 1,6 C 0,6 C 84 % 1006,0 hPa 0,0 l/m 0 min 0 min 0,0 UV-I 51 W/m 2,6 km/h (1 Bft)
30.01.2014 10:08 1,6 C 0,6 C 84 % 1005,9 hPa 0,0 l/m 0 min 0 min 0,0 UV-I 51 W/m 7,7 km/h (2 Bft)
30.01.2014 10:10 1,6 C 0,6 C 84 % 1005,9 hPa 0,0 l/m 0 min 0 min 0,0 UV-I 53 W/m 12,9 km/h (3 Bft)
30.01.2014 10:12 1,7 C 0,6 C 83 % 1005,9 hPa 0,0 l/m 0 min 0 min 0,0 UV-I 56 W/m 12,9 km/h (3 Bft)
30.01.2014 10:14 1,7 C 0,6 C 83 % 1005,9 hPa 0,0 l/m 0 min 0 min 0,0 UV-I 62 W/m 5,1 km/h (1 Bft)
30.01.2014 10:16 1,7 C 0,6 C 83 % 1006,0 hPa 0,0 l/m 0 min 0 min 0,0 UV-I 70 W/m 15,4 km/h (3 Bft)
30.01.2014 10:18 1,7 C 0,6 C 83 % 1005,9 hPa 0,0 l/m 0 min 0 min 0,0 UV-I 67 W/m 18,0 km/h (3 Bft)
30.01.2014 10:20 1,8 C 0,6 C 83 % 1005,9 hPa 0,0 l/m 0 min 0 min 0,0 UV-I 69 W/m 23,2 km/h (4 Bft)
30.01.2014 10:22 1,8 C 0,6 C 83 % 1005,9 hPa 0,0 l/m 0 min 0 min 0,0 UV-I 72 W/m 18,0 km/h (3 Bft)
30.01.2014 10:24 1,9 C 0,6 C 83 % 1005,9 hPa 0,0 l/m 0 min 0 min 0,0 UV-I 90 W/m 18,0 km/h (3 Bft)
30.01.2014 10:26 1,9 C 0,6 C 83 % 1005,8 hPa 0,0 l/m 0 min 0 min 0,0 UV-I 74 W/m 15,4 km/h (3 Bft)
30.01.2014 10:28 2,0 C 1,1 C 83 % 1005,8 hPa 0,0 l/m 0 min 0 min 0,0 UV-I 83 W/m 18,0 km/h (3 Bft)
30.01.2014 10:30 2,0 C 1,1 C 82 % 1005,8 hPa 0,0 l/m 0 min 0 min 0,0 UV-I 98 W/m 18,0 km/h (3 Bft)
30.01.2014 10:32 2,1 C 1,1 C 82 % 1005,8 hPa 0,0 l/m 0 min 0 min 0,0 UV-I 81 W/m 12,9 km/h (3 Bft)
30.01.2014 10:34 2,1 C 1,1 C 82 % 1005,9 hPa 0,0 l/m 0 min 0 min 0,0 UV-I 116 W/m 7,7 km/h (2 Bft)
30.01.2014 10:36 2,2 C 1,1 C 82 % 1005,9 hPa 0,0 l/m 0 min 0 min 0,0 UV-I 135 W/m 10,3 km/h (2 Bft)
30.01.2014 10:38 2,3 C 1,1 C 82 % 1006,0 hPa 0,0 l/m 0 min 0 min 0,0 UV-I 139 W/m 10,3 km/h (2 Bft)
30.01.2014 10:40 2,3 C 1,7 C 82 % 1006,0 hPa 0,0 l/m 0 min 0 min 0,0 UV-I 142 W/m 10,3 km/h (2 Bft)
30.01.2014 10:42 2,4 C 1,7 C 81 % 1005,9 hPa 0,0 l/m 0 min 0 min 0,0 UV-I 149 W/m 7,7 km/h (2 Bft)
30.01.2014 10:44 2,5 C 1,7 C 81 % 1005,9 hPa 0,0 l/m 0 min 0 min 0,0 UV-I 153 W/m 10,3 km/h (2 Bft)
30.01.2014 10:46 2,6 C 2,2 C 81 % 1005,9 hPa 0,0 l/m 2 min 0 min 0,0 UV-I 172 W/m 15,4 km/h (3 Bft)
30.01.2014 10:48 2,7 C 2,2 C 81 % 1005,9 hPa 0,0 l/m 2 min 0 min 0,0 UV-I 332 W/m 12,9 km/h (3 Bft)
30.01.2014 10:50 2,8 C 2,2 C 81 % 1005,9 hPa 0,0 l/m 2 min 0 min 0,0 UV-I 200 W/m 0,0 km/h (0 Bft)
30.01.2014 10:52 3,0 C 2,8 C 80 % 1005,9 hPa 0,0 l/m 2 min 0 min 0,0 UV-I 345 W/m 15,4 km/h (3 Bft)
30.01.2014 10:54 3,2 C 2,8 C 80 % 1006,0 hPa 0,0 l/m 2 min 0 min 0,0 UV-I 341 W/m 25,7 km/h (4 Bft)
30.01.2014 10:56 3,4 C 2,8 C 79 % 1005,9 hPa 0,0 l/m 2 min 0 min 0,0 UV-I 192 W/m 18,0 km/h (3 Bft)
30.01.2014 10:58 3,4 C 2,8 C 79 % 1005,8 hPa 0,0 l/m 0 min 0 min 0,0 UV-I 158 W/m 10,3 km/h (2 Bft)
30.01.2014 11:00 3,5 C 2,8 C 78 % 1005,8 hPa 0,0 l/m 0 min 0 min 0,0 UV-I 149 W/m 10,3 km/h (2 Bft)
30.01.2014 11:02 3,4 C 2,8 C 78 % 1005,9 hPa 0,0 l/m 0 min 0 min 0,0 UV-I 146 W/m 7,7 km/h (2 Bft)
30.01.2014 11:04 3,4 C 2,8 C 78 % 1005,8 hPa 0,0 l/m 0 min 0 min 0,0 UV-I 134 W/m 18,0 km/h (3 Bft)
30.01.2014 11:06 3,3 C 2,8 C 78 % 1005,8 hPa 0,0 l/m 0 min 0 min 0,0 UV-I 123 W/m 23,2 km/h (4 Bft)
30.01.2014 11:08 3,1 C 2,2 C 78 % 1005,9 hPa 0,0 l/m 0 min 0 min 0,0 UV-I 125 W/m 20,6 km/h (4 Bft)
30.01.2014 11:10 3,0 C 2,2 C 78 % 1005,9 hPa 0,0 l/m 0 min 0 min 0,0 UV-I 132 W/m 18,0 km/h (3 Bft)
30.01.2014 11:12 2,9 C 2,2 C 78 % 1005,8 hPa 0,0 l/m 0 min 0 min 0,0 UV-I 139 W/m 28,3 km/h (4 Bft)
30.01.2014 11:14 2,8 C 2,2 C 78 % 1005,8 hPa 0,0 l/m 2 min 0 min 0,0 UV-I 218 W/m 25,7 km/h (4 Bft)
30.01.2014 11:16 2,9 C 2,2 C 79 % 1005,7 hPa 0,0 l/m 2 min 0 min 0,0 UV-I 181 W/m 23,2 km/h (4 Bft)
30.01.2014 11:18 2,9 C 2,8 C 79 % 1005,7 hPa 0,0 l/m 2 min 0 min 0,0 UV-I 239 W/m 20,6 km/h (4 Bft)
30.01.2014 11:20 3,0 C 2,8 C 79 % 1005,7 hPa 0,0 l/m 2 min 0 min 0,0 UV-I 209 W/m 12,9 km/h (3 Bft)
30.01.2014 11:22 3,1 C 2,8 C 79 % 1005,7 hPa 0,0 l/m 2 min 0 min 0,0 UV-I 250 W/m 18,0 km/h (3 Bft)
30.01.2014 11:24 3,2 C 2,8 C 79 % 1005,7 hPa 0,0 l/m 2 min 0 min 0,0 UV-I 387 W/m 10,3 km/h (2 Bft)
30.01.2014 11:26 3,4 C 3,3 C 79 % 1005,8 hPa 0,0 l/m 2 min 0 min 0,0 UV-I 369 W/m 12,9 km/h (3 Bft)
30.01.2014 11:28 3,7 C 3,3 C 78 % 1005,7 hPa 0,0 l/m 2 min 0 min 0,0 UV-I 392 W/m 20,6 km/h (4 Bft)
30.01.2014 11:30 3,9 C 3,9 C 78 % 1005,7 hPa 0,0 l/m 2 min 0 min 0,0 UV-I 388 W/m 18,0 km/h (3 Bft)
30.01.2014 11:32 4,1 C 3,9 C 77 % 1005,7 hPa 0,0 l/m 2 min 0 min 0,0 UV-I 390 W/m 12,9 km/h (3 Bft)
30.01.2014 11:34 4,2 C 3,9 C 77 % 1005,8 hPa 0,0 l/m 2 min 0 min 0,0 UV-I 299 W/m 20,6 km/h (4 Bft)
30.01.2014 11:36 4,3 C 3,9 C 76 % 1005,8 hPa 0,0 l/m 2 min 0 min 0,0 UV-I 334 W/m 12,9 km/h (3 Bft)
30.01.2014 11:38 4,3 C 3,9 C 76 % 1005,8 hPa 0,0 l/m 2 min 0 min 0,0 UV-I 332 W/m 12,9 km/h (3 Bft)
30.01.2014 11:40 4,4 C 3,9 C 76 % 1005,8 hPa 0,0 l/m 2 min 0 min 0,0 UV-I 323 W/m 18,0 km/h (3 Bft)
30.01.2014 11:42 4,3 C 3,9 C 75 % 1005,8 hPa 0,0 l/m 2 min 0 min 0,0 UV-I 318 W/m 20,6 km/h (4 Bft)
30.01.2014 11:44 4,4 C 3,9 C 76 % 1005,7 hPa 0,0 l/m 2 min 0 min 0,0 UV-I 308 W/m 20,6 km/h (4 Bft)
30.01.2014 11:46 4,4 C 3,9 C 76 % 1005,7 hPa 0,0 l/m 2 min 0 min 0,0 UV-I 299 W/m 20,6 km/h (4 Bft)
30.01.2014 11:48 4,4 C 3,3 C 75 % 1005,7 hPa 0,0 l/m 2 min 0 min 0,0 UV-I 295 W/m 23,2 km/h (4 Bft)
30.01.2014 11:50 4,4 C 3,3 C 75 % 1005,6 hPa 0,0 l/m 2 min 0 min 0,0 UV-I 290 W/m 20,6 km/h (4 Bft)
30.01.2014 11:52 4,4 C 3,3 C 75 % 1005,6 hPa 0,0 l/m 2 min 0 min 0,0 UV-I 287 W/m 10,3 km/h (2 Bft)
30.01.2014 11:54 4,4 C 3,3 C 75 % 1005,6 hPa 0,0 l/m 2 min 0 min 0,0 UV-I 288 W/m 12,9 km/h (3 Bft)
30.01.2014 11:56 4,4 C 3,3 C 76 % 1005,6 hPa 0,0 l/m 2 min 0 min 0,0 UV-I 285 W/m 15,4 km/h (3 Bft)
30.01.2014 11:58 4,6 C 3,3 C 76 % 1005,6 hPa 0,0 l/m 2 min 0 min 0,0 UV-I 287 W/m 18,0 km/h (3 Bft)
30.01.2014 12:00 4,7 C 3,3 C 75 % 1005,7 hPa 0,0 l/m 2 min 0 min 0,0 UV-I 290 W/m 18,0 km/h (3 Bft)
30.01.2014 12:02 4,7 C 3,3 C 75 % 1005,6 hPa 0,0 l/m 2 min 0 min 0,0 UV-I 287 W/m 18,0 km/h (3 Bft)
30.01.2014 12:04 4,6 C 3,3 C 74 % 1005,6 hPa 0,0 l/m 2 min 0 min 0,0 UV-I 290 W/m 10,3 km/h (2 Bft)
30.01.2014 12:06 4,6 C 3,3 C 74 % 1005,6 hPa 0,0 l/m 2 min 0 min 0,0 UV-I 292 W/m 12,9 km/h (3 Bft)
30.01.2014 12:08 4,6 C 3,3 C 75 % 1005,7 hPa 0,0 l/m 2 min 0 min 0,0 UV-I 294 W/m 18,0 km/h (3 Bft)
30.01.2014 12:10 4,7 C 3,3 C 74 % 1005,7 hPa 0,0 l/m 2 min 0 min 0,0 UV-I 295 W/m 28,3 km/h (4 Bft)
30.01.2014 12:12 4,6 C 3,3 C 74 % 1005,7 hPa 0,0 l/m 2 min 0 min 0,0 UV-I 297 W/m 23,2 km/h (4 Bft)
30.01.2014 12:14 4,6 C 3,3 C 74 % 1005,6 hPa 0,0 l/m 2 min 0 min 0,0 UV-I 294 W/m 12,9 km/h (3 Bft)
30.01.2014 12:16 4,7 C 3,3 C 74 % 1005,6 hPa 0,0 l/m 2 min 0 min 0,0 UV-I 295 W/m 28,3 km/h (4 Bft)
30.01.2014 12:18 4,7 C 3,3 C 74 % 1005,7 hPa 0,0 l/m 2 min 0 min 0,0 UV-I 299 W/m 20,6 km/h (4 Bft)
30.01.2014 12:20 4,8 C 3,3 C 74 % 1005,6 hPa 0,0 l/m 2 min 0 min 0,0 UV-I 301 W/m 18,0 km/h (3 Bft)
30.01.2014 12:22 4,8 C 3,3 C 73 % 1005,7 hPa 0,0 l/m 2 min 0 min 0,0 UV-I 304 W/m 23,2 km/h (4 Bft)
30.01.2014 12:24 4,8 C 3,3 C 74 % 1005,6 hPa 0,0 l/m 2 min 0 min 0,0 UV-I 304 W/m 18,0 km/h (3 Bft)
30.01.2014 12:26 4,8 C 3,3 C 73 % 1005,6 hPa 0,0 l/m 2 min 0 min 0,0 UV-I 309 W/m 15,4 km/h (3 Bft)
30.01.2014 12:28 4,8 C 3,3 C 73 % 1005,6 hPa 0,0 l/m 2 min 0 min 0,0 UV-I 311 W/m 20,6 km/h (4 Bft)
30.01.2014 12:30 4,8 C 3,3 C 73 % 1005,5 hPa 0,0 l/m 2 min 0 min 0,0 UV-I 308 W/m 23,2 km/h (4 Bft)
30.01.2014 12:32 4,8 C 3,3 C 74 % 1005,6 hPa 0,0 l/m 2 min 0 min 0,0 UV-I 311 W/m 20,6 km/h (4 Bft)
30.01.2014 12:34 4,8 C 3,3 C 73 % 1005,6 hPa 0,0 l/m 2 min 0 min 0,0 UV-I 313 W/m 12,9 km/h (3 Bft)
30.01.2014 12:36 4,9 C 3,3 C 73 % 1005,6 hPa 0,0 l/m 2 min 0 min 0,0 UV-I 309 W/m 12,9 km/h (3 Bft)
30.01.2014 12:38 4,9 C 3,3 C 73 % 1005,7 hPa 0,0 l/m 2 min 0 min 0,0 UV-I 311 W/m 18,0 km/h (3 Bft)
30.01.2014 12:40 4,9 C 3,3 C 73 % 1005,6 hPa 0,0 l/m 2 min 0 min 0,0 UV-I 313 W/m 25,7 km/h (4 Bft)
30.01.2014 12:42 4,9 C 3,3 C 73 % 1005,6 hPa 0,0 l/m 2 min 0 min 0,0 UV-I 313 W/m 15,4 km/h (3 Bft)
30.01.2014 12:44 4,9 C 3,9 C 73 % 1005,6 hPa 0,0 l/m 2 min 0 min 0,0 UV-I 316 W/m 25,7 km/h (4 Bft)
30.01.2014 12:46 4,8 C 3,3 C 73 % 1005,6 hPa 0,0 l/m 2 min 0 min 0,0 UV-I 313 W/m 20,6 km/h (4 Bft)
30.01.2014 12:48 4,8 C 3,3 C 73 % 1005,6 hPa 0,0 l/m 2 min 0 min 0,0 UV-I 315 W/m 20,6 km/h (4 Bft)
30.01.2014 12:50 4,8 C 3,9 C 74 % 1005,6 hPa 0,0 l/m 2 min 0 min 0,0 UV-I 318 W/m 20,6 km/h (4 Bft)
30.01.2014 12:52 4,8 C 3,3 C 73 % 1005,6 hPa 0,0 l/m 2 min 0 min 0,0 UV-I 320 W/m 23,2 km/h (4 Bft)
30.01.2014 12:54 4,8 C 3,9 C 73 % 1005,7 hPa 0,0 l/m 2 min 0 min 0,0 UV-I 325 W/m 23,2 km/h (4 Bft)
30.01.2014 12:56 4,9 C 3,9 C 73 % 1005,7 hPa 0,0 l/m 2 min 0 min 0,0 UV-I 308 W/m 12,9 km/h (3 Bft)
30.01.2014 12:58 5,0 C 3,9 C 73 % 1005,7 hPa 0,0 l/m 2 min 0 min 0,0 UV-I 323 W/m 15,4 km/h (3 Bft)
30.01.2014 13:00 5,1 C 3,9 C 74 % 1005,6 hPa 0,0 l/m 2 min 0 min 0,0 UV-I 330 W/m 10,3 km/h (2 Bft)
30.01.2014 13:02 5,2 C 3,9 C 74 % 1005,6 hPa 0,0 l/m 2 min 0 min 0,0 UV-I 332 W/m 7,7 km/h (2 Bft)
30.01.2014 13:04 5,3 C 3,9 C 73 % 1005,6 hPa 0,0 l/m 2 min 0 min 0,0 UV-I 338 W/m 10,3 km/h (2 Bft)
30.01.2014 13:06 5,3 C 3,9 C 72 % 1005,7 hPa 0,0 l/m 2 min 0 min 0,0 UV-I 230 W/m 18,0 km/h (3 Bft)
30.01.2014 13:08 5,3 C 3,9 C 72 % 1005,7 hPa 0,0 l/m 2 min 0 min 0,0 UV-I 330 W/m 15,4 km/h (3 Bft)
30.01.2014 13:10 5,1 C 3,9 C 72 % 1005,7 hPa 0,0 l/m 0 min 0 min 0,0 UV-I 74 W/m 18,0 km/h (3 Bft)
30.01.2014 13:12 4,7 C 3,3 C 72 % 1005,7 hPa 0,0 l/m 0 min 0 min 0,0 UV-I 74 W/m 12,9 km/h (3 Bft)
30.01.2014 13:14 4,6 C 3,3 C 73 % 1005,6 hPa 0,0 l/m 0 min 0 min 0,0 UV-I 83 W/m 10,3 km/h (2 Bft)
30.01.2014 13:16 4,4 C 2,8 C 74 % 1005,6 hPa 0,0 l/m 0 min 0 min 0,0 UV-I 95 W/m 15,4 km/h (3 Bft)
30.01.2014 13:18 4,2 C 2,8 C 74 % 1005,6 hPa 0,0 l/m 0 min 0 min 0,0 UV-I 98 W/m 20,6 km/h (4 Bft)
30.01.2014 13:20 4,1 C 2,8 C 75 % 1005,6 hPa 0,0 l/m 0 min 0 min 0,0 UV-I 100 W/m 7,7 km/h (2 Bft)
30.01.2014 13:22 4,0 C 2,8 C 75 % 1005,6 hPa 0,0 l/m 0 min 0 min 0,0 UV-I 109 W/m 10,3 km/h (2 Bft)
30.01.2014 13:24 3,9 C 2,8 C 75 % 1005,5 hPa 0,0 l/m 0 min 0 min 0,0 UV-I 121 W/m 5,1 km/h (1 Bft)
30.01.2014 13:26 3,9 C 2,8 C 75 % 1005,5 hPa 0,0 l/m 0 min 0 min 0,0 UV-I 132 W/m 10,3 km/h (2 Bft)
30.01.2014 13:28 3,9 C 2,8 C 76 % 1005,5 hPa 0,0 l/m 0 min 0 min 0,0 UV-I 167 W/m 12,9 km/h (3 Bft)
30.01.2014 13:30 3,9 C 2,8 C 76 % 1005,5 hPa 0,0 l/m 2 min 0 min 0,0 UV-I 206 W/m 10,3 km/h (2 Bft)
30.01.2014 13:32 4,1 C 2,8 C 76 % 1005,5 hPa 0,0 l/m 2 min 0 min 0,0 UV-I 213 W/m 10,3 km/h (2 Bft)
30.01.2014 13:34 4,2 C 3,3 C 79 % 1005,5 hPa 0,0 l/m 2 min 0 min 0,0 UV-I 220 W/m 18,0 km/h (3 Bft)
30.01.2014 13:36 4,4 C 3,3 C 75 % 1005,5 hPa 0,0 l/m 0 min 0 min 0,0 UV-I 174 W/m 12,9 km/h (3 Bft)
30.01.2014 13:38 4,4 C 3,3 C 74 % 1005,5 hPa 0,0 l/m 2 min 0 min 0,0 UV-I 195 W/m 18,0 km/h (3 Bft)
30.01.2014 13:40 4,4 C 3,3 C 74 % 1005,6 hPa 0,0 l/m 2 min 0 min 0,0 UV-I 207 W/m 15,4 km/h (3 Bft)
30.01.2014 13:42 4,4 C 3,3 C 73 % 1005,6 hPa 0,0 l/m 2 min 0 min 0,0 UV-I 234 W/m 18,0 km/h (3 Bft)
30.01.2014 13:44 4,5 C 3,9 C 74 % 1005,5 hPa 0,0 l/m 2 min 0 min 0,0 UV-I 299 W/m 15,4 km/h (3 Bft)
30.01.2014 13:46 4,7 C 3,9 C 74 % 1005,6 hPa 0,0 l/m 2 min 0 min 0,0 UV-I 299 W/m 0,0 km/h (0 Bft)
30.01.2014 13:48 4,9 C 4,4 C 74 % 1005,5 hPa 0,0 l/m 2 min 0 min 0,0 UV-I 338 W/m 12,9 km/h (3 Bft)
30.01.2014 13:50 5,1 C 4,4 C 73 % 1005,4 hPa 0,0 l/m 2 min 0 min 0,0 UV-I 355 W/m 15,4 km/h (3 Bft)
30.01.2014 13:52 5,2 C 5,0 C 72 % 1005,5 hPa 0,0 l/m 2 min 0 min 0,0 UV-I 371 W/m 7,7 km/h (2 Bft)
30.01.2014 13:54 5,6 C 5,0 C 73 % 1005,5 hPa 0,0 l/m 2 min 0 min 0,0 UV-I 383 W/m 18,0 km/h (3 Bft)
30.01.2014 13:56 5,7 C 5,0 C 72 % 1005,4 hPa 0,0 l/m 2 min 0 min 0,0 UV-I 320 W/m 15,4 km/h (3 Bft)
30.01.2014 13:58 5,7 C 5,0 C 72 % 1005,5 hPa 0,0 l/m 2 min 0 min 0,0 UV-I 371 W/m 18,0 km/h (3 Bft)
30.01.2014 14:00 5,6 C 5,0 C 71 % 1005,4 hPa 0,0 l/m 2 min 0 min 0,0 UV-I 279 W/m 18,0 km/h (3 Bft)
30.01.2014 14:02 5,5 C 5,0 C 72 % 1005,4 hPa 0,0 l/m 2 min 0 min 0,0 UV-I 207 W/m 18,0 km/h (3 Bft)
30.01.2014 14:04 5,4 C 4,4 C 71 % 1005,4 hPa 0,0 l/m 2 min 0 min 0,0 UV-I 295 W/m 18,0 km/h (3 Bft)
30.01.2014 14:06 5,4 C 4,4 C 72 % 1005,4 hPa 0,0 l/m 2 min 0 min 0,0 UV-I 185 W/m 12,9 km/h (3 Bft)
30.01.2014 14:08 5,3 C 4,4 C 72 % 1005,3 hPa 0,0 l/m 2 min 0 min 0,0 UV-I 200 W/m 18,0 km/h (3 Bft)
30.01.2014 14:10 5,3 C 4,4 C 72 % 1005,3 hPa 0,0 l/m 2 min 0 min 0,0 UV-I 306 W/m 15,4 km/h (3 Bft)
30.01.2014 14:12 5,3 C 4,4 C 72 % 1005,2 hPa 0,0 l/m 0 min 0 min 0,0 UV-I 151 W/m 10,3 km/h (2 Bft)
30.01.2014 14:14 5,2 C 3,9 C 72 % 1005,2 hPa 0,0 l/m 2 min 0 min 0,0 UV-I 251 W/m 10,3 km/h (2 Bft)
30.01.2014 14:16 5,2 C 3,9 C 73 % 1005,2 hPa 0,0 l/m 2 min 0 min 0,0 UV-I 294 W/m 10,3 km/h (2 Bft)
30.01.2014 14:18 5,3 C 3,9 C 73 % 1005,2 hPa 0,0 l/m 2 min 0 min 0,0 UV-I 267 W/m 12,9 km/h (3 Bft)
30.01.2014 14:20 5,2 C 3,9 C 72 % 1005,2 hPa 0,0 l/m 2 min 0 min 0,0 UV-I 234 W/m 12,9 km/h (3 Bft)
30.01.2014 14:22 5,2 C 3,9 C 72 % 1005,1 hPa 0,0 l/m 2 min 0 min 0,0 UV-I 192 W/m 12,9 km/h (3 Bft)
30.01.2014 14:24 5,2 C 3,9 C 72 % 1005,1 hPa 0,0 l/m 2 min 0 min 0,0 UV-I 227 W/m 10,3 km/h (2 Bft)
30.01.2014 14:26 5,2 C 3,9 C 72 % 1005,1 hPa 0,0 l/m 2 min 0 min 0,0 UV-I 185 W/m 7,7 km/h (2 Bft)
30.01.2014 14:28 5,2 C 3,9 C 73 % 1005,1 hPa 0,0 l/m 2 min 0 min 0,0 UV-I 243 W/m 7,7 km/h (2 Bft)
30.01.2014 14:30 5,2 C 3,9 C 72 % 1005,1 hPa 0,0 l/m 2 min 0 min 0,0 UV-I 244 W/m 12,9 km/h (3 Bft)
30.01.2014 14:32 5,3 C 3,9 C 73 % 1005,2 hPa 0,0 l/m 2 min 0 min 0,0 UV-I 264 W/m 12,9 km/h (3 Bft)
30.01.2014 14:34 5,4 C 3,9 C 73 % 1005,2 hPa 0,0 l/m 2 min 0 min 0,0 UV-I 281 W/m 12,9 km/h (3 Bft)
30.01.2014 14:36 5,6 C 4,4 C 72 % 1005,2 hPa 0,0 l/m 2 min 0 min 0,0 UV-I 281 W/m 12,9 km/h (3 Bft)
30.01.2014 14:38 5,6 C 3,9 C 72 % 1005,2 hPa 0,0 l/m 0 min 0 min 0,0 UV-I 132 W/m 12,9 km/h (3 Bft)
30.01.2014 14:40 5,4 C 3,9 C 71 % 1005,2 hPa 0,0 l/m 0 min 0 min 0,0 UV-I 91 W/m 5,1 km/h (1 Bft)
30.01.2014 14:42 5,3 C 3,9 C 72 % 1005,2 hPa 0,0 l/m 0 min 0 min 0,0 UV-I 81 W/m 10,3 km/h (2 Bft)
30.01.2014 14:44 5,2 C 3,9 C 72 % 1005,2 hPa 0,0 l/m 0 min 0 min 0,0 UV-I 84 W/m 10,3 km/h (2 Bft)
30.01.2014 14:46 5,1 C 3,3 C 74 % 1005,3 hPa 0,0 l/m 0 min 0 min 0,0 UV-I 121 W/m 10,3 km/h (2 Bft)
30.01.2014 14:48 5,0 C 3,3 C 74 % 1005,1 hPa 0,0 l/m 0 min 0 min 0,0 UV-I 93 W/m 7,7 km/h (2 Bft)
30.01.2014 14:50 5,0 C 3,3 C 74 % 1005,2 hPa 0,0 l/m 0 min 0 min 0,0 UV-I 141 W/m 10,3 km/h (2 Bft)
30.01.2014 14:52 5,1 C 3,9 C 74 % 1005,3 hPa 0,0 l/m 0 min 0 min 0,0 UV-I 116 W/m 5,1 km/h (1 Bft)
30.01.2014 14:54 5,1 C 3,9 C 74 % 1005,2 hPa 0,0 l/m 0 min 0 min 0,0 UV-I 123 W/m 7,7 km/h (2 Bft)
30.01.2014 14:56 5,1 C 3,3 C 74 % 1005,3 hPa 0,0 l/m 0 min 0 min 0,0 UV-I 128 W/m 7,7 km/h (2 Bft)
30.01.2014 14:58 5,1 C 3,9 C 73 % 1005,3 hPa 0,0 l/m 0 min 0 min 0,0 UV-I 121 W/m 12,9 km/h (3 Bft)
30.01.2014 15:00 5,1 C 3,9 C 73 % 1005,3 hPa 0,0 l/m 0 min 0 min 0,0 UV-I 109 W/m 15,4 km/h (3 Bft)
30.01.2014 15:02 5,1 C 3,9 C 73 % 1005,3 hPa 0,0 l/m 0 min 0 min 0,0 UV-I 105 W/m 7,7 km/h (2 Bft)
30.01.2014 15:04 5,1 C 3,9 C 73 % 1005,3 hPa 0,0 l/m 2 min 0 min 0,0 UV-I 185 W/m 12,9 km/h (3 Bft)
30.01.2014 15:06 5,1 C 3,9 C 74 % 1005,3 hPa 0,0 l/m 2 min 0 min 0,0 UV-I 155 W/m 7,7 km/h (2 Bft)
30.01.2014 15:08 5,1 C 3,9 C 74 % 1005,3 hPa 0,0 l/m 0 min 0 min 0,0 UV-I 130 W/m 10,3 km/h (2 Bft)
30.01.2014 15:10 5,2 C 3,9 C 74 % 1005,3 hPa 0,0 l/m 2 min 0 min 0,0 UV-I 169 W/m 15,4 km/h (3 Bft)
30.01.2014 15:12 5,2 C 4,4 C 73 % 1005,4 hPa 0,0 l/m 2 min 0 min 0,0 UV-I 141 W/m 2,6 km/h (1 Bft)
30.01.2014 15:14 5,3 C 4,4 C 73 % 1005,4 hPa 0,0 l/m 2 min 0 min 0,0 UV-I 155 W/m 20,6 km/h (4 Bft)
30.01.2014 15:16 5,3 C 4,4 C 73 % 1005,4 hPa 0,0 l/m 2 min 0 min 0,0 UV-I 169 W/m 15,4 km/h (3 Bft)
30.01.2014 15:18 5,4 C 4,4 C 73 % 1005,4 hPa 0,0 l/m 2 min 0 min 0,0 UV-I 192 W/m 10,3 km/h (2 Bft)
30.01.2014 15:20 5,5 C 5,0 C 73 % 1005,3 hPa 0,0 l/m 2 min 0 min 0,0 UV-I 171 W/m 12,9 km/h (3 Bft)
30.01.2014 15:22 5,6 C 5,0 C 73 % 1005,4 hPa 0,0 l/m 2 min 0 min 0,0 UV-I 178 W/m 10,3 km/h (2 Bft)
30.01.2014 15:24 5,6 C 5,0 C 72 % 1005,4 hPa 0,0 l/m 2 min 0 min 0,0 UV-I 257 W/m 10,3 km/h (2 Bft)
30.01.2014 15:26 5,7 C 5,0 C 72 % 1005,4 hPa 0,0 l/m 2 min 0 min 0,0 UV-I 267 W/m 12,9 km/h (3 Bft)
30.01.2014 15:28 5,8 C 5,0 C 72 % 1005,4 hPa 0,0 l/m 2 min 0 min 0,0 UV-I 267 W/m 10,3 km/h (2 Bft)
30.01.2014 15:30 6,0 C 5,6 C 72 % 1005,4 hPa 0,0 l/m 2 min 0 min 0,0 UV-I 257 W/m 20,6 km/h (4 Bft)
30.01.2014 15:32 6,1 C 5,6 C 72 % 1005,4 hPa 0,0 l/m 2 min 0 min 0,0 UV-I 243 W/m 20,6 km/h (4 Bft)
30.01.2014 15:34 6,2 C 5,6 C 72 % 1005,5 hPa 0,0 l/m 2 min 0 min 0,0 UV-I 246 W/m 15,4 km/h (3 Bft)
30.01.2014 15:36 6,2 C 5,6 C 71 % 1005,5 hPa 0,0 l/m 2 min 0 min 0,0 UV-I 163 W/m 15,4 km/h (3 Bft)
30.01.2014 15:38 6,2 C 5,6 C 71 % 1005,5 hPa 0,0 l/m 2 min 0 min 0,0 UV-I 232 W/m 15,4 km/h (3 Bft)
30.01.2014 15:40 6,2 C 6,1 C 72 % 1005,5 hPa 0,0 l/m 2 min 0 min 0,0 UV-I 163 W/m 12,9 km/h (3 Bft)
30.01.2014 15:42 6,2 C 6,1 C 71 % 1005,6 hPa 0,0 l/m 2 min 0 min 0,0 UV-I 142 W/m 15,4 km/h (3 Bft)
30.01.2014 15:44 6,2 C 5,6 C 71 % 1005,6 hPa 0,0 l/m 2 min 0 min 0,0 UV-I 216 W/m 18,0 km/h (3 Bft)
30.01.2014 15:46 6,2 C 5,6 C 72 % 1005,5 hPa 0,0 l/m 2 min 0 min 0,0 UV-I 207 W/m 10,3 km/h (2 Bft)
30.01.2014 15:48 6,2 C 5,6 C 71 % 1005,5 hPa 0,0 l/m 2 min 0 min 0,0 UV-I 179 W/m 15,4 km/h (3 Bft)
30.01.2014 15:50 6,2 C 5,6 C 72 % 1005,5 hPa 0,0 l/m 2 min 0 min 0,0 UV-I 149 W/m 20,6 km/h (4 Bft)
30.01.2014 15:52 6,2 C 5,6 C 72 % 1005,5 hPa 0,0 l/m 2 min 0 min 0,0 UV-I 130 W/m 10,3 km/h (2 Bft)
30.01.2014 15:54 6,1 C 5,6 C 72 % 1005,5 hPa 0,0 l/m 2 min 0 min 0,0 UV-I 148 W/m 12,9 km/h (3 Bft)
30.01.2014 15:56 6,1 C 5,0 C 72 % 1005,5 hPa 0,0 l/m 2 min 0 min 0,0 UV-I 149 W/m 12,9 km/h (3 Bft)
30.01.2014 15:58 6,1 C 5,0 C 71 % 1005,5 hPa 0,0 l/m 2 min 0 min 0,0 UV-I 162 W/m 20,6 km/h (4 Bft)
30.01.2014 16:00 6,0 C 5,0 C 71 % 1005,5 hPa 0,0 l/m 2 min 0 min 0,0 UV-I 155 W/m 10,3 km/h (2 Bft)
30.01.2014 16:02 5,9 C 5,0 C 71 % 1005,5 hPa 0,0 l/m 2 min 0 min 0,0 UV-I 111 W/m 12,9 km/h (3 Bft)
30.01.2014 16:04 5,9 C 5,0 C 71 % 1005,5 hPa 0,0 l/m 2 min 0 min 0,0 UV-I 90 W/m 12,9 km/h (3 Bft)
30.01.2014 16:06 5,9 C 5,0 C 71 % 1005,5 hPa 0,0 l/m 0 min 0 min 0,0 UV-I 79 W/m 7,7 km/h (2 Bft)
30.01.2014 16:08 5,9 C 5,0 C 71 % 1005,5 hPa 0,0 l/m 0 min 0 min 0,0 UV-I 67 W/m 20,6 km/h (4 Bft)
30.01.2014 16:10 5,9 C 5,0 C 71 % 1005,4 hPa 0,0 l/m 0 min 0 min 0,0 UV-I 65 W/m 20,6 km/h (4 Bft)
30.01.2014 16:12 5,9 C 4,4 C 71 % 1005,4 hPa 0,0 l/m 0 min 0 min 0,0 UV-I 60 W/m 12,9 km/h (3 Bft)
30.01.2014 16:14 5,8 C 4,4 C 71 % 1005,4 hPa 0,0 l/m 0 min 0 min 0,0 UV-I 58 W/m 12,9 km/h (3 Bft)
30.01.2014 16:16 5,8 C 4,4 C 71 % 1005,4 hPa 0,0 l/m 0 min 0 min 0,0 UV-I 60 W/m 18,0 km/h (3 Bft)
30.01.2014 16:18 5,8 C 4,4 C 72 % 1005,4 hPa 0,0 l/m 0 min 0 min 0,0 UV-I 54 W/m 5,1 km/h (1 Bft)
30.01.2014 16:20 5,8 C 4,4 C 72 % 1005,4 hPa 0,0 l/m 0 min 0 min 0,0 UV-I 53 W/m 7,7 km/h (2 Bft)
30.01.2014 16:22 5,8 C 4,4 C 72 % 1005,5 hPa 0,0 l/m 0 min 0 min 0,0 UV-I 51 W/m 7,7 km/h (2 Bft)
30.01.2014 16:24 5,7 C 4,4 C 72 % 1005,4 hPa 0,0 l/m 0 min 0 min 0,0 UV-I 51 W/m 7,7 km/h (2 Bft)
30.01.2014 16:26 5,7 C 3,9 C 72 % 1005,4 hPa 0,0 l/m 0 min 0 min 0,0 UV-I 51 W/m 0,0 km/h (0 Bft)
30.01.2014 16:28 5,6 C 3,9 C 72 % 1005,4 hPa 0,0 l/m 0 min 0 min 0,0 UV-I 49 W/m 7,7 km/h (2 Bft)
30.01.2014 16:30 5,6 C 3,9 C 72 % 1005,3 hPa 0,0 l/m 0 min 0 min 0,0 UV-I 47 W/m 10,3 km/h (2 Bft)
30.01.2014 16:32 5,6 C 3,9 C 73 % 1005,3 hPa 0,0 l/m 0 min 0 min 0,0 UV-I 46 W/m 7,7 km/h (2 Bft)
30.01.2014 16:34 5,6 C 3,9 C 73 % 1005,3 hPa 0,0 l/m 0 min 0 min 0,0 UV-I 44 W/m 5,1 km/h (1 Bft)
30.01.2014 16:36 5,5 C 3,9 C 73 % 1005,3 hPa 0,0 l/m 0 min 0 min 0,0 UV-I 42 W/m 12,9 km/h (3 Bft)
30.01.2014 16:38 5,5 C 3,9 C 73 % 1005,4 hPa 0,0 l/m 0 min 0 min 0,0 UV-I 42 W/m 0,0 km/h (0 Bft)
30.01.2014 16:40 5,5 C 3,9 C 73 % 1005,4 hPa 0,0 l/m 0 min 0 min 0,0 UV-I 42 W/m 0,0 km/h (0 Bft)
30.01.2014 16:42 5,5 C 3,9 C 73 % 1005,4 hPa 0,0 l/m 0 min 0 min 0,0 UV-I 42 W/m 5,1 km/h (1 Bft)
30.01.2014 16:44 5,4 C 3,9 C 73 % 1005,4 hPa 0,0 l/m 2 min 0 min 0,0 UV-I 40 W/m 0,0 km/h (0 Bft)
30.01.2014 16:46 5,4 C 3,9 C 73 % 1005,5 hPa 0,0 l/m 0 min 0 min 0,0 UV-I 37 W/m 0,0 km/h (0 Bft)
30.01.2014 16:48 5,4 C 3,9 C 73 % 1005,4 hPa 0,0 l/m 0 min 0 min 0,0 UV-I 30 W/m 7,7 km/h (2 Bft)
30.01.2014 16:50 5,4 C 3,9 C 73 % 1005,5 hPa 0,0 l/m 0 min 0 min 0,0 UV-I 26 W/m 7,7 km/h (2 Bft)
30.01.2014 16:52 5,4 C 3,9 C 73 % 1005,5 hPa 0,0 l/m 0 min 0 min 0,0 UV-I 23 W/m 10,3 km/h (2 Bft)
30.01.2014 16:54 5,3 C 3,3 C 73 % 1005,5 hPa 0,0 l/m 0 min 0 min 0,0 UV-I 21 W/m 5,1 km/h (1 Bft)
30.01.2014 16:56 5,3 C 3,3 C 74 % 1005,5 hPa 0,0 l/m 0 min 0 min 0,0 UV-I 21 W/m 7,7 km/h (2 Bft)
30.01.2014 16:58 5,3 C 3,3 C 74 % 1005,5 hPa 0,0 l/m 0 min 0 min 0,0 UV-I 21 W/m 10,3 km/h (2 Bft)
30.01.2014 17:00 5,2 C 3,3 C 74 % 1005,4 hPa 0,0 l/m 2 min 0 min 0,0 UV-I 21 W/m 2,6 km/h (1 Bft)
30.01.2014 17:02 5,2 C 3,3 C 74 % 1005,5 hPa 0,0 l/m 2 min 0 min 0,0 UV-I 21 W/m 0,0 km/h (0 Bft)
30.01.2014 17:04 5,2 C 3,3 C 74 % 1005,5 hPa 0,0 l/m 2 min 0 min 0,0 UV-I 21 W/m 7,7 km/h (2 Bft)
30.01.2014 17:06 5,1 C 3,3 C 74 % 1005,5 hPa 0,0 l/m 0 min 0 min 0,0 UV-I 19 W/m 5,1 km/h (1 Bft)
30.01.2014 17:08 5,1 C 3,3 C 74 % 1005,4 hPa 0,0 l/m 0 min 0 min 0,0 UV-I 19 W/m 0,0 km/h (0 Bft)
30.01.2014 17:10 5,1 C 3,3 C 74 % 1005,5 hPa 0,0 l/m 0 min 0 min 0,0 UV-I 18 W/m 12,9 km/h (3 Bft)
30.01.2014 17:12 5,1 C 3,3 C 73 % 1005,5 hPa 0,0 l/m 0 min 0 min 0,0 UV-I 16 W/m 7,7 km/h (2 Bft)
30.01.2014 17:14 5,0 C 3,3 C 73 % 1005,5 hPa 0,0 l/m 0 min 0 min 0,0 UV-I 14 W/m 5,1 km/h (1 Bft)
30.01.2014 17:16 5,0 C 3,3 C 73 % 1005,5 hPa 0,0 l/m 0 min 0 min 0,0 UV-I 12 W/m 10,3 km/h (2 Bft)
30.01.2014 17:18 5,0 C 3,3 C 73 % 1005,5 hPa 0,0 l/m 0 min 0 min 0,0 UV-I 11 W/m 10,3 km/h (2 Bft)
30.01.2014 17:20 4,9 C 2,8 C 73 % 1005,6 hPa 0,0 l/m 0 min 0 min 0,0 UV-I 9 W/m 0,0 km/h (0 Bft)
30.01.2014 17:22 4,9 C 2,8 C 73 % 1005,6 hPa 0,0 l/m 0 min 0 min 0,0 UV-I 7 W/m 10,3 km/h (2 Bft)
30.01.2014 17:24 4,9 C 2,8 C 74 % 1005,5 hPa 0,0 l/m 0 min 0 min 0,0 UV-I 7 W/m 7,7 km/h (2 Bft)
30.01.2014 17:26 4,8 C 2,8 C 74 % 1005,5 hPa 0,0 l/m 0 min 0 min 0,0 UV-I 5 W/m 5,1 km/h (1 Bft)
30.01.2014 17:28 4,8 C 2,8 C 74 % 1005,6 hPa 0,0 l/m 0 min 0 min 0,0 UV-I 5 W/m 2,6 km/h (1 Bft)
30.01.2014 17:30 4,7 C 2,8 C 74 % 1005,6 hPa 0,0 l/m 0 min 0 min 0,0 UV-I 5 W/m 5,1 km/h (1 Bft)
30.01.2014 17:32 4,7 C 2,8 C 74 % 1005,6 hPa 0,0 l/m 0 min 0 min 0,0 UV-I 0 W/m 7,7 km/h (2 Bft)
30.01.2014 17:34 4,7 C 2,8 C 74 % 1005,6 hPa 0,0 l/m 0 min 0 min 0,0 UV-I 0 W/m 0,0 km/h (0 Bft)
30.01.2014 17:36 4,7 C 2,8 C 74 % 1005,6 hPa 0,0 l/m 0 min 0 min 0,0 UV-I 0 W/m 2,6 km/h (1 Bft)
30.01.2014 17:38 4,6 C 2,8 C 74 % 1005,6 hPa 0,0 l/m 0 min 0 min 0,0 UV-I 0 W/m 0,0 km/h (0 Bft)
30.01.2014 17:40 4,6 C 2,2 C 74 % 1005,6 hPa 0,0 l/m 0 min 0 min 0,0 UV-I 0 W/m 0,0 km/h (0 Bft)
30.01.2014 17:42 4,5 C 2,2 C 75 % 1005,6 hPa 0,0 l/m 0 min 0 min 0,0 UV-I 0 W/m 0,0 km/h (0 Bft)
30.01.2014 17:44 4,3 C 2,2 C 75 % 1005,6 hPa 0,0 l/m 0 min 0 min 0,0 UV-I 0 W/m 0,0 km/h (0 Bft)
30.01.2014 17:46 4,2 C 1,7 C 76 % 1005,5 hPa 0,0 l/m 0 min 0 min 0,0 UV-I 0 W/m 0,0 km/h (0 Bft)
30.01.2014 17:48 4,1 C 1,7 C 76 % 1005,5 hPa 0,0 l/m 0 min 0 min 0,0 UV-I 0 W/m 0,0 km/h (0 Bft)
30.01.2014 17:50 3,9 C 1,7 C 77 % 1005,6 hPa 0,0 l/m 0 min 0 min 0,0 UV-I 0 W/m 0,0 km/h (0 Bft)
30.01.2014 17:52 3,8 C 1,7 C 77 % 1005,7 hPa 0,0 l/m 0 min 0 min 0,0 UV-I 0 W/m 0,0 km/h (0 Bft)
30.01.2014 17:54 3,8 C 1,7 C 78 % 1005,6 hPa 0,0 l/m 0 min 0 min 0,0 UV-I 0 W/m 2,6 km/h (1 Bft)
30.01.2014 17:56 3,8 C 1,7 C 79 % 1005,6 hPa 0,0 l/m 0 min 0 min 0,0 UV-I 0 W/m 0,0 km/h (0 Bft)
30.01.2014 17:58 3,8 C 1,7 C 79 % 1005,7 hPa 0,0 l/m 0 min 0 min 0,0 UV-I 0 W/m 0,0 km/h (0 Bft)
30.01.2014 18:00 3,9 C 1,1 C 79 % 1005,7 hPa 0,0 l/m 0 min 0 min 0,0 UV-I 0 W/m 0,0 km/h (0 Bft)
30.01.2014 18:02 3,9 C 1,7 C 78 % 1005,7 hPa 0,0 l/m 0 min 0 min 0,0 UV-I 0 W/m 0,0 km/h (0 Bft)
30.01.2014 18:04 3,9 C 1,7 C 78 % 1005,7 hPa 0,0 l/m 0 min 0 min 0,0 UV-I 0 W/m 0,0 km/h (0 Bft)
30.01.2014 18:06 3,9 C 1,1 C 78 % 1005,7 hPa 0,0 l/m 0 min 0 min 0,0 UV-I 0 W/m 0,0 km/h (0 Bft)
30.01.2014 18:08 3,9 C 1,1 C 78 % 1005,7 hPa 0,0 l/m 0 min 0 min 0,0 UV-I 0 W/m 0,0 km/h (0 Bft)
30.01.2014 18:10 3,9 C 1,1 C 78 % 1005,7 hPa 0,0 l/m 0 min 0 min 0,0 UV-I 0 W/m 0,0 km/h (0 Bft)
30.01.2014 18:12 3,8 C 1,1 C 78 % 1005,7 hPa 0,0 l/m 0 min 0 min 0,0 UV-I 0 W/m 0,0 km/h (0 Bft)
30.01.2014 18:14 3,8 C 1,1 C 78 % 1005,8 hPa 0,0 l/m 0 min 0 min 0,0 UV-I 0 W/m 0,0 km/h (0 Bft)
30.01.2014 18:16 3,7 C 1,1 C 79 % 1005,7 hPa 0,0 l/m 0 min 0 min 0,0 UV-I 0 W/m 0,0 km/h (0 Bft)
30.01.2014 18:18 3,6 C 1,1 C 79 % 1005,7 hPa 0,0 l/m 0 min 0 min 0,0 UV-I 0 W/m 0,0 km/h (0 Bft)
30.01.2014 18:20 3,5 C 1,1 C 79 % 1005,8 hPa 0,0 l/m 0 min 0 min 0,0 UV-I 0 W/m 0,0 km/h (0 Bft)
30.01.2014 18:22 3,4 C 1,1 C 79 % 1005,8 hPa 0,0 l/m 0 min 0 min 0,0 UV-I 0 W/m 0,0 km/h (0 Bft)
30.01.2014 18:24 3,4 C 1,1 C 80 % 1005,8 hPa 0,0 l/m 0 min 0 min 0,0 UV-I 0 W/m 0,0 km/h (0 Bft)
30.01.2014 18:26 3,5 C 1,1 C 79 % 1005,8 hPa 0,0 l/m 0 min 0 min 0,0 UV-I 0 W/m 0,0 km/h (0 Bft)
30.01.2014 18:28 3,5 C 1,1 C 79 % 1005,8 hPa 0,0 l/m 0 min 0 min 0,0 UV-I 0 W/m 2,6 km/h (1 Bft)
30.01.2014 18:30 3,6 C 1,7 C 79 % 1005,8 hPa 0,0 l/m 0 min 0 min 0,0 UV-I 0 W/m 10,3 km/h (2 Bft)
30.01.2014 18:32 3,6 C 1,7 C 79 % 1006,0 hPa 0,0 l/m 0 min 0 min 0,0 UV-I 0 W/m 2,6 km/h (1 Bft)
30.01.2014 18:34 3,6 C 1,7 C 79 % 1005,9 hPa 0,0 l/m 0 min 0 min 0,0 UV-I 0 W/m 0,0 km/h (0 Bft)
30.01.2014 18:36 3,7 C 1,7 C 78 % 1005,8 hPa 0,0 l/m 0 min 0 min 0,0 UV-I 0 W/m 2,6 km/h (1 Bft)
30.01.2014 18:38 3,7 C 1,7 C 78 % 1005,9 hPa 0,0 l/m 0 min 0 min 0,0 UV-I 0 W/m 5,1 km/h (1 Bft)
30.01.2014 18:40 3,7 C 1,7 C 78 % 1005,9 hPa 0,0 l/m 0 min 0 min 0,0 UV-I 0 W/m 7,7 km/h (2 Bft)
30.01.2014 18:42 3,7 C 1,7 C 78 % 1005,8 hPa 0,0 l/m 0 min 0 min 0,0 UV-I 0 W/m 0,0 km/h (0 Bft)
30.01.2014 18:44 3,7 C 1,7 C 78 % 1005,9 hPa 0,0 l/m 0 min 0 min 0,0 UV-I 0 W/m 0,0 km/h (0 Bft)
30.01.2014 18:46 3,7 C 1,7 C 78 % 1006,0 hPa 0,0 l/m 0 min 0 min 0,0 UV-I 0 W/m 0,0 km/h (0 Bft)
30.01.2014 18:48 3,6 C 1,7 C 78 % 1006,0 hPa 0,0 l/m 0 min 0 min 0,0 UV-I 0 W/m 0,0 km/h (0 Bft)
30.01.2014 18:50 3,6 C 1,7 C 78 % 1005,9 hPa 0,0 l/m 0 min 0 min 0,0 UV-I 0 W/m 0,0 km/h (0 Bft)
30.01.2014 18:52 3,6 C 1,7 C 78 % 1005,9 hPa 0,0 l/m 0 min 0 min 0,0 UV-I 0 W/m 0,0 km/h (0 Bft)
30.01.2014 18:54 3,6 C 1,1 C 78 % 1005,9 hPa 0,0 l/m 0 min 0 min 0,0 UV-I 0 W/m 0,0 km/h (0 Bft)
30.01.2014 18:56 3,6 C 1,1 C 78 % 1006,0 hPa 0,0 l/m 0 min 0 min 0,0 UV-I 0 W/m 0,0 km/h (0 Bft)
30.01.2014 18:58 3,6 C 1,1 C 78 % 1006,0 hPa 0,0 l/m 0 min 0 min 0,0 UV-I 0 W/m 0,0 km/h (0 Bft)
30.01.2014 19:00 3,6 C 1,1 C 77 % 1006,0 hPa 0,0 l/m 0 min 0 min 0,0 UV-I 0 W/m 0,0 km/h (0 Bft)
30.01.2014 19:02 3,6 C 1,1 C 78 % 1006,0 hPa 0,0 l/m 0 min 0 min 0,0 UV-I 0 W/m 0,0 km/h (0 Bft)
30.01.2014 19:04 3,6 C 1,1 C 78 % 1006,1 hPa 0,0 l/m 0 min 0 min 0,0 UV-I 0 W/m 0,0 km/h (0 Bft)
30.01.2014 19:06 3,5 C 1,1 C 78 % 1006,0 hPa 0,0 l/m 0 min 0 min 0,0 UV-I 0 W/m 0,0 km/h (0 Bft)
30.01.2014 19:08 3,5 C 1,1 C 78 % 1006,1 hPa 0,0 l/m 0 min 0 min 0,0 UV-I 0 W/m 0,0 km/h (0 Bft)
30.01.2014 19:10 3,4 C 1,1 C 78 % 1006,0 hPa 0,0 l/m 0 min 0 min 0,0 UV-I 0 W/m 0,0 km/h (0 Bft)
30.01.2014 19:12 3,3 C 0,6 C 78 % 1006,0 hPa 0,0 l/m 0 min 0 min 0,0 UV-I 0 W/m 0,0 km/h (0 Bft)
30.01.2014 19:14 3,3 C 0,6 C 78 % 1006,0 hPa 0,0 l/m 0 min 0 min 0,0 UV-I 0 W/m 0,0 km/h (0 Bft)
30.01.2014 19:16 3,2 C 0,6 C 79 % 1006,1 hPa 0,0 l/m 0 min 0 min 0,0 UV-I 0 W/m 0,0 km/h (0 Bft)
30.01.2014 19:18 3,2 C 0,6 C 79 % 1006,1 hPa 0,0 l/m 0 min 0 min 0,0 UV-I 0 W/m 0,0 km/h (0 Bft)
30.01.2014 19:20 3,2 C 0,6 C 79 % 1006,1 hPa 0,0 l/m 0 min 0 min 0,0 UV-I 0 W/m 0,0 km/h (0 Bft)
30.01.2014 19:22 3,2 C 0,6 C 79 % 1006,1 hPa 0,0 l/m 0 min 0 min 0,0 UV-I 0 W/m 10,3 km/h (2 Bft)
30.01.2014 19:24 3,2 C 1,1 C 79 % 1006,1 hPa 0,0 l/m 0 min 0 min 0,0 UV-I 0 W/m 0,0 km/h (0 Bft)
30.01.2014 19:26 3,3 C 1,1 C 79 % 1006,1 hPa 0,0 l/m 0 min 0 min 0,0 UV-I 0 W/m 0,0 km/h (0 Bft)
30.01.2014 19:28 3,3 C 1,1 C 79 % 1006,1 hPa 0,0 l/m 0 min 0 min 0,0 UV-I 0 W/m 0,0 km/h (0 Bft)
30.01.2014 19:30 3,3 C 1,1 C 79 % 1006,1 hPa 0,0 l/m 0 min 0 min 0,0 UV-I 0 W/m 2,6 km/h (1 Bft)
30.01.2014 19:32 3,4 C 1,1 C 78 % 1006,2 hPa 0,0 l/m 0 min 0 min 0,0 UV-I 0 W/m 5,1 km/h (1 Bft)
30.01.2014 19:34 3,4 C 1,1 C 78 % 1006,2 hPa 0,0 l/m 0 min 0 min 0,0 UV-I 0 W/m 5,1 km/h (1 Bft)
30.01.2014 19:36 3,4 C 1,1 C 78 % 1006,1 hPa 0,0 l/m 0 min 0 min 0,0 UV-I 0 W/m 0,0 km/h (0 Bft)
30.01.2014 19:38 3,4 C 1,1 C 78 % 1006,1 hPa 0,0 l/m 0 min 0 min 0,0 UV-I 0 W/m 0,0 km/h (0 Bft)
30.01.2014 19:40 3,4 C 1,1 C 78 % 1006,2 hPa 0,0 l/m 0 min 0 min 0,0 UV-I 0 W/m 0,0 km/h (0 Bft)
30.01.2014 19:42 3,3 C 1,1 C 78 % 1006,2 hPa 0,0 l/m 0 min 0 min 0,0 UV-I 0 W/m 2,6 km/h (1 Bft)
30.01.2014 19:44 3,4 C 1,1 C 78 % 1006,2 hPa 0,0 l/m 0 min 0 min 0,0 UV-I 0 W/m 2,6 km/h (1 Bft)
30.01.2014 19:46 3,4 C 1,1 C 78 % 1006,2 hPa 0,0 l/m 0 min 0 min 0,0 UV-I 0 W/m 0,0 km/h (0 Bft)
30.01.2014 19:48 3,3 C 1,1 C 78 % 1006,2 hPa 0,0 l/m 0 min 0 min 0,0 UV-I 0 W/m 0,0 km/h (0 Bft)
30.01.2014 19:50 3,3 C 1,1 C 78 % 1006,2 hPa 0,0 l/m 0 min 0 min 0,0 UV-I 0 W/m 2,6 km/h (1 Bft)
30.01.2014 19:52 3,3 C 1,1 C 78 % 1006,2 hPa 0,0 l/m 0 min 0 min 0,0 UV-I 0 W/m 0,0 km/h (0 Bft)
30.01.2014 19:54 3,2 C 1,1 C 79 % 1006,2 hPa 0,0 l/m 0 min 0 min 0,0 UV-I 0 W/m 0,0 km/h (0 Bft)
30.01.2014 19:56 3,2 C 1,1 C 79 % 1006,2 hPa 0,0 l/m 0 min 0 min 0,0 UV-I 0 W/m 5,1 km/h (1 Bft)
30.01.2014 19:58 3,2 C 1,1 C 78 % 1006,2 hPa 0,0 l/m 0 min 0 min 0,0 UV-I 0 W/m 0,0 km/h (0 Bft)
30.01.2014 20:00 3,2 C 1,1 C 78 % 1006,3 hPa 0,0 l/m 0 min 0 min 0,0 UV-I 0 W/m 5,1 km/h (1 Bft)
30.01.2014 20:02 3,2 C 1,1 C 78 % 1006,3 hPa 0,0 l/m 0 min 0 min 0,0 UV-I 0 W/m 5,1 km/h (1 Bft)
30.01.2014 20:04 3,1 C 1,1 C 79 % 1006,2 hPa 0,0 l/m 0 min 0 min 0,0 UV-I 0 W/m 5,1 km/h (1 Bft)
30.01.2014 20:06 3,1 C 1,1 C 79 % 1006,3 hPa 0,0 l/m 0 min 0 min 0,0 UV-I 0 W/m 0,0 km/h (0 Bft)
30.01.2014 20:08 3,1 C 1,1 C 79 % 1006,3 hPa 0,0 l/m 0 min 0 min 0,0 UV-I 0 W/m 7,7 km/h (2 Bft)
30.01.2014 20:10 3,1 C 1,1 C 79 % 1006,3 hPa 0,0 l/m 0 min 0 min 0,0 UV-I 0 W/m 0,0 km/h (0 Bft)
30.01.2014 20:12 3,1 C 1,1 C 79 % 1006,3 hPa 0,0 l/m 0 min 0 min 0,0 UV-I 0 W/m 2,6 km/h (1 Bft)
30.01.2014 20:14 3,1 C 1,1 C 79 % 1006,3 hPa 0,0 l/m 0 min 0 min 0,0 UV-I 0 W/m 0,0 km/h (0 Bft)
30.01.2014 20:16 3,0 C 1,1 C 79 % 1006,2 hPa 0,0 l/m 0 min 0 min 0,0 UV-I 0 W/m 0,0 km/h (0 Bft)
30.01.2014 20:18 3,0 C 1,1 C 79 % 1006,3 hPa 0,0 l/m 0 min 0 min 0,0 UV-I 0 W/m 10,3 km/h (2 Bft)
30.01.2014 20:20 2,9 C 1,1 C 79 % 1006,3 hPa 0,0 l/m 0 min 0 min 0,0 UV-I 0 W/m 2,6 km/h (1 Bft)
30.01.2014 20:22 3,0 C 1,1 C 79 % 1006,3 hPa 0,0 l/m 0 min 0 min 0,0 UV-I 0 W/m 7,7 km/h (2 Bft)
30.01.2014 20:24 3,0 C 1,1 C 79 % 1006,4 hPa 0,0 l/m 0 min 0 min 0,0 UV-I 0 W/m 5,1 km/h (1 Bft)
30.01.2014 20:26 3,0 C 1,1 C 79 % 1006,3 hPa 0,0 l/m 0 min 0 min 0,0 UV-I 0 W/m 5,1 km/h (1 Bft)
30.01.2014 20:28 3,0 C 1,1 C 79 % 1006,3 hPa 0,0 l/m 0 min 0 min 0,0 UV-I 0 W/m 5,1 km/h (1 Bft)
30.01.2014 20:30 3,0 C 1,1 C 79 % 1006,3 hPa 0,0 l/m 0 min 0 min 0,0 UV-I 0 W/m 12,9 km/h (3 Bft)
30.01.2014 20:32 2,9 C 1,1 C 79 % 1006,3 hPa 0,0 l/m 0 min 0 min 0,0 UV-I 0 W/m 7,7 km/h (2 Bft)
30.01.2014 20:34 2,9 C 1,1 C 79 % 1006,2 hPa 0,0 l/m 0 min 0 min 0,0 UV-I 0 W/m 7,7 km/h (2 Bft)
30.01.2014 20:36 2,9 C 1,1 C 79 % 1006,3 hPa 0,0 l/m 0 min 0 min 0,0 UV-I 0 W/m 7,7 km/h (2 Bft)
30.01.2014 20:38 2,9 C 1,1 C 79 % 1006,2 hPa 0,0 l/m 0 min 0 min 0,0 UV-I 0 W/m 5,1 km/h (1 Bft)
30.01.2014 20:40 2,9 C 1,1 C 79 % 1006,2 hPa 0,0 l/m 0 min 0 min 0,0 UV-I 0 W/m 0,0 km/h (0 Bft)
30.01.2014 20:42 2,9 C 1,1 C 79 % 1006,3 hPa 0,0 l/m 0 min 0 min 0,0 UV-I 0 W/m 2,6 km/h (1 Bft)
30.01.2014 20:44 2,9 C 1,1 C 79 % 1006,2 hPa 0,0 l/m 0 min 0 min 0,0 UV-I 0 W/m 7,7 km/h (2 Bft)
30.01.2014 20:46 2,8 C 1,1 C 79 % 1006,3 hPa 0,0 l/m 0 min 0 min 0,0 UV-I 0 W/m 7,7 km/h (2 Bft)
30.01.2014 20:48 2,8 C 1,1 C 79 % 1006,3 hPa 0,0 l/m 0 min 0 min 0,0 UV-I 0 W/m 10,3 km/h (2 Bft)
30.01.2014 20:50 2,8 C 1,1 C 79 % 1006,3 hPa 0,0 l/m 0 min 0 min 0,0 UV-I 0 W/m 5,1 km/h (1 Bft)
30.01.2014 20:52 2,8 C 1,1 C 79 % 1006,3 hPa 0,0 l/m 0 min 0 min 0,0 UV-I 0 W/m 10,3 km/h (2 Bft)
30.01.2014 20:54 2,8 C 1,1 C 79 % 1006,3 hPa 0,0 l/m 0 min 0 min 0,0 UV-I 0 W/m 10,3 km/h (2 Bft)
30.01.2014 20:56 2,8 C 1,1 C 79 % 1006,3 hPa 0,0 l/m 0 min 0 min 0,0 UV-I 0 W/m 0,0 km/h (0 Bft)
30.01.2014 20:58 2,7 C 1,1 C 79 % 1006,4 hPa 0,0 l/m 0 min 0 min 0,0 UV-I 0 W/m 10,3 km/h (2 Bft)
30.01.2014 21:00 2,7 C 1,1 C 79 % 1006,4 hPa 0,0 l/m 0 min 0 min 0,0 UV-I 0 W/m 7,7 km/h (2 Bft)
30.01.2014 21:02 2,7 C 1,1 C 79 % 1006,3 hPa 0,0 l/m 0 min 0 min 0,0 UV-I 0 W/m 7,7 km/h (2 Bft)
30.01.2014 21:04 2,7 C 1,1 C 79 % 1006,4 hPa 0,0 l/m 0 min 0 min 0,0 UV-I 0 W/m 5,1 km/h (1 Bft)
30.01.2014 21:06 2,7 C 1,1 C 79 % 1006,4 hPa 0,0 l/m 0 min 0 min 0,0 UV-I 0 W/m 10,3 km/h (2 Bft)
30.01.2014 21:08 2,6 C 1,1 C 79 % 1006,4 hPa 0,0 l/m 0 min 0 min 0,0 UV-I 0 W/m 2,6 km/h (1 Bft)
30.01.2014 21:10 2,6 C 1,1 C 79 % 1006,4 hPa 0,0 l/m 0 min 0 min 0,0 UV-I 0 W/m 12,9 km/h (3 Bft)
30.01.2014 21:12 2,6 C 1,1 C 79 % 1006,4 hPa 0,0 l/m 0 min 0 min 0,0 UV-I 0 W/m 12,9 km/h (3 Bft)
30.01.2014 21:14 2,6 C 1,1 C 79 % 1006,4 hPa 0,0 l/m 0 min 0 min 0,0 UV-I 0 W/m 12,9 km/h (3 Bft)
30.01.2014 21:16 2,6 C 1,1 C 79 % 1006,5 hPa 0,0 l/m 0 min 0 min 0,0 UV-I 0 W/m 0,0 km/h (0 Bft)
30.01.2014 21:18 2,6 C 1,1 C 79 % 1006,4 hPa 0,0 l/m 0 min 0 min 0,0 UV-I 0 W/m 7,7 km/h (2 Bft)
30.01.2014 21:20 2,6 C 0,6 C 79 % 1006,5 hPa 0,0 l/m 0 min 0 min 0,0 UV-I 0 W/m 7,7 km/h (2 Bft)
30.01.2014 21:22 2,6 C 0,6 C 79 % 1006,5 hPa 0,0 l/m 0 min 0 min 0,0 UV-I 0 W/m 7,7 km/h (2 Bft)
30.01.2014 21:24 2,5 C 0,6 C 79 % 1006,4 hPa 0,0 l/m 0 min 0 min 0,0 UV-I 0 W/m 5,1 km/h (1 Bft)
30.01.2014 21:26 2,4 C 0,6 C 79 % 1006,5 hPa 0,0 l/m 0 min 0 min 0,0 UV-I 0 W/m 5,1 km/h (1 Bft)
30.01.2014 21:28 2,4 C 0,6 C 79 % 1006,5 hPa 0,0 l/m 0 min 0 min 0,0 UV-I 0 W/m 0,0 km/h (0 Bft)
30.01.2014 21:30 2,4 C 0,6 C 79 % 1006,5 hPa 0,0 l/m 0 min 0 min 0,0 UV-I 0 W/m 12,9 km/h (3 Bft)
30.01.2014 21:32 2,4 C 0,6 C 79 % 1006,5 hPa 0,0 l/m 0 min 0 min 0,0 UV-I 0 W/m 10,3 km/h (2 Bft)
30.01.2014 21:34 2,4 C 0,6 C 79 % 1006,5 hPa 0,0 l/m 0 min 0 min 0,0 UV-I 0 W/m 7,7 km/h (2 Bft)
30.01.2014 21:36 2,3 C 0,6 C 79 % 1006,5 hPa 0,0 l/m 0 min 0 min 0,0 UV-I 0 W/m 7,7 km/h (2 Bft)
30.01.2014 21:38 2,3 C 0,6 C 80 % 1006,5 hPa 0,0 l/m 0 min 0 min 0,0 UV-I 0 W/m 2,6 km/h (1 Bft)
30.01.2014 21:40 2,3 C 0,6 C 80 % 1006,5 hPa 0,0 l/m 0 min 0 min 0,0 UV-I 0 W/m 7,7 km/h (2 Bft)
30.01.2014 21:42 2,2 C 0,6 C 80 % 1006,5 hPa 0,0 l/m 0 min 0 min 0,0 UV-I 0 W/m 2,6 km/h (1 Bft)
30.01.2014 21:44 2,2 C 0,6 C 80 % 1006,5 hPa 0,0 l/m 0 min 0 min 0,0 UV-I 0 W/m 2,6 km/h (1 Bft)
30.01.2014 21:46 2,2 C 0,6 C 80 % 1006,5 hPa 0,0 l/m 0 min 0 min 0,0 UV-I 0 W/m 0,0 km/h (0 Bft)
30.01.2014 21:48 2,1 C 0,6 C 80 % 1006,5 hPa 0,0 l/m 0 min 0 min 0,0 UV-I 0 W/m 5,1 km/h (1 Bft)
30.01.2014 21:50 2,1 C 0,6 C 80 % 1006,5 hPa 0,0 l/m 0 min 0 min 0,0 UV-I 0 W/m 10,3 km/h (2 Bft)
30.01.2014 21:52 2,1 C 0,6 C 80 % 1006,5 hPa 0,0 l/m 0 min 0 min 0,0 UV-I 0 W/m 5,1 km/h (1 Bft)
30.01.2014 21:54 2,0 C 0,6 C 81 % 1006,5 hPa 0,0 l/m 0 min 0 min 0,0 UV-I 0 W/m 0,0 km/h (0 Bft)
30.01.2014 21:56 2,0 C 0,6 C 81 % 1006,6 hPa 0,0 l/m 0 min 0 min 0,0 UV-I 0 W/m 5,1 km/h (1 Bft)
30.01.2014 21:58 1,9 C 0,6 C 81 % 1006,6 hPa 0,0 l/m 0 min 0 min 0,0 UV-I 0 W/m 5,1 km/h (1 Bft)
30.01.2014 22:00 1,9 C 0,0 C 81 % 1006,6 hPa 0,0 l/m 0 min 0 min 0,0 UV-I 0 W/m 0,0 km/h (0 Bft)
30.01.2014 22:02 1,9 C 0,0 C 81 % 1006,6 hPa 0,0 l/m 0 min 0 min 0,0 UV-I 0 W/m 0,0 km/h (0 Bft)
30.01.2014 22:04 1,9 C 0,0 C 81 % 1006,6 hPa 0,0 l/m 0 min 0 min 0,0 UV-I 0 W/m 0,0 km/h (0 Bft)
30.01.2014 22:06 1,8 C 0,0 C 81 % 1006,6 hPa 0,0 l/m 0 min 0 min 0,0 UV-I 0 W/m 0,0 km/h (0 Bft)
30.01.2014 22:08 1,8 C 0,0 C 81 % 1006,6 hPa 0,0 l/m 0 min 0 min 0,0 UV-I 0 W/m 2,6 km/h (1 Bft)
30.01.2014 22:10 1,8 C 0,0 C 81 % 1006,7 hPa 0,0 l/m 0 min 0 min 0,0 UV-I 0 W/m 0,0 km/h (0 Bft)
30.01.2014 22:12 1,8 C 0,0 C 81 % 1006,7 hPa 0,0 l/m 0 min 0 min 0,0 UV-I 0 W/m 0,0 km/h (0 Bft)
30.01.2014 22:14 1,7 C 0,0 C 82 % 1006,8 hPa 0,0 l/m 0 min 0 min 0,0 UV-I 0 W/m 0,0 km/h (0 Bft)
30.01.2014 22:16 1,7 C 0,0 C 82 % 1006,8 hPa 0,0 l/m 0 min 0 min 0,0 UV-I 0 W/m 2,6 km/h (1 Bft)
30.01.2014 22:18 1,7 C 0,0 C 82 % 1006,8 hPa 0,0 l/m 0 min 0 min 0,0 UV-I 0 W/m 0,0 km/h (0 Bft)
30.01.2014 22:20 1,7 C 0,0 C 82 % 1006,7 hPa 0,0 l/m 0 min 0 min 0,0 UV-I 0 W/m 0,0 km/h (0 Bft)
30.01.2014 22:22 1,7 C 0,0 C 82 % 1006,8 hPa 0,0 l/m 0 min 0 min 0,0 UV-I 0 W/m 7,7 km/h (2 Bft)
30.01.2014 22:24 1,7 C 0,0 C 82 % 1006,8 hPa 0,0 l/m 0 min 0 min 0,0 UV-I 0 W/m 0,0 km/h (0 Bft)
30.01.2014 22:26 1,7 C 0,0 C 82 % 1006,8 hPa 0,0 l/m 0 min 0 min 0,0 UV-I 0 W/m 0,0 km/h (0 Bft)
30.01.2014 22:28 1,6 C 0,0 C 82 % 1006,7 hPa 0,0 l/m 0 min 0 min 0,0 UV-I 0 W/m 2,6 km/h (1 Bft)
30.01.2014 22:30 1,6 C 0,0 C 82 % 1006,8 hPa 0,0 l/m 0 min 0 min 0,0 UV-I 0 W/m 0,0 km/h (0 Bft)
30.01.2014 22:32 1,6 C 0,0 C 82 % 1006,8 hPa 0,0 l/m 0 min 0 min 0,0 UV-I 0 W/m 0,0 km/h (0 Bft)
30.01.2014 22:34 1,6 C 0,0 C 82 % 1006,7 hPa 0,0 l/m 0 min 0 min 0,0 UV-I 0 W/m 0,0 km/h (0 Bft)
30.01.2014 22:36 1,6 C 0,0 C 82 % 1006,5 hPa 0,0 l/m 0 min 0 min 0,0 UV-I 0 W/m 2,6 km/h (1 Bft)
30.01.2014 22:38 1,6 C 0,0 C 82 % 1006,5 hPa 0,0 l/m 0 min 0 min 0,0 UV-I 0 W/m 2,6 km/h (1 Bft)
30.01.2014 22:40 1,5 C 0,0 C 82 % 1006,5 hPa 0,0 l/m 0 min 0 min 0,0 UV-I 0 W/m 0,0 km/h (0 Bft)
30.01.2014 22:42 1,4 C 0,0 C 82 % 1006,4 hPa 0,0 l/m 0 min 0 min 0,0 UV-I 0 W/m 0,0 km/h (0 Bft)
30.01.2014 22:44 1,4 C -0,6 C 82 % 1006,4 hPa 0,0 l/m 0 min 0 min 0,0 UV-I 0 W/m 0,0 km/h (0 Bft)
30.01.2014 22:46 1,4 C 0,0 C 82 % 1006,4 hPa 0,0 l/m 0 min 0 min 0,0 UV-I 0 W/m 2,6 km/h (1 Bft)
30.01.2014 22:48 1,4 C 0,0 C 82 % 1006,4 hPa 0,0 l/m 0 min 0 min 0,0 UV-I 0 W/m 2,6 km/h (1 Bft)
30.01.2014 22:50 1,4 C 0,0 C 82 % 1006,4 hPa 0,0 l/m 0 min 0 min 0,0 UV-I 0 W/m 0,0 km/h (0 Bft)
30.01.2014 22:52 1,4 C 0,0 C 83 % 1006,4 hPa 0,0 l/m 0 min 0 min 0,0 UV-I 0 W/m 2,6 km/h (1 Bft)
30.01.2014 22:54 1,4 C 0,0 C 82 % 1006,4 hPa 0,0 l/m 0 min 0 min 0,0 UV-I 0 W/m 7,7 km/h (2 Bft)
30.01.2014 22:56 1,4 C 0,0 C 82 % 1006,4 hPa 0,0 l/m 0 min 0 min 0,0 UV-I 0 W/m 0,0 km/h (0 Bft)
30.01.2014 22:58 1,4 C 0,0 C 82 % 1006,4 hPa 0,0 l/m 0 min 0 min 0,0 UV-I 0 W/m 2,6 km/h (1 Bft)
30.01.2014 23:00 1,4 C 0,0 C 83 % 1006,4 hPa 0,0 l/m 0 min 0 min 0,0 UV-I 0 W/m 0,0 km/h (0 Bft)
30.01.2014 23:02 1,4 C 0,0 C 83 % 1006,3 hPa 0,0 l/m 0 min 0 min 0,0 UV-I 0 W/m 7,7 km/h (2 Bft)
30.01.2014 23:04 1,3 C -0,6 C 83 % 1006,4 hPa 0,0 l/m 0 min 0 min 0,0 UV-I 0 W/m 0,0 km/h (0 Bft)
30.01.2014 23:06 1,3 C -0,6 C 83 % 1006,4 hPa 0,0 l/m 0 min 0 min 0,0 UV-I 0 W/m 5,1 km/h (1 Bft)
30.01.2014 23:08 1,3 C -0,6 C 83 % 1006,5 hPa 0,0 l/m 0 min 0 min 0,0 UV-I 0 W/m 7,7 km/h (2 Bft)
30.01.2014 23:10 1,3 C -0,6 C 83 % 1006,5 hPa 0,0 l/m 0 min 0 min 0,0 UV-I 0 W/m 7,7 km/h (2 Bft)
30.01.2014 23:12 1,3 C -0,6 C 83 % 1006,5 hPa 0,0 l/m 0 min 0 min 0,0 UV-I 0 W/m 5,1 km/h (1 Bft)
30.01.2014 23:14 1,3 C -0,6 C 83 % 1006,5 hPa 0,0 l/m 0 min 0 min 0,0 UV-I 0 W/m 7,7 km/h (2 Bft)
30.01.2014 23:16 1,3 C -0,6 C 83 % 1006,4 hPa 0,0 l/m 0 min 0 min 0,0 UV-I 0 W/m 18,0 km/h (3 Bft)
30.01.2014 23:18 1,3 C -0,6 C 83 % 1006,5 hPa 0,0 l/m 0 min 0 min 0,0 UV-I 0 W/m 7,7 km/h (2 Bft)
30.01.2014 23:20 1,2 C -0,6 C 83 % 1006,5 hPa 0,0 l/m 0 min 0 min 0,0 UV-I 0 W/m 0,0 km/h (0 Bft)
30.01.2014 23:22 1,2 C -0,6 C 83 % 1006,5 hPa 0,0 l/m 0 min 0 min 0,0 UV-I 0 W/m 5,1 km/h (1 Bft)
30.01.2014 23:24 1,2 C -0,6 C 83 % 1006,5 hPa 0,0 l/m 0 min 0 min 0,0 UV-I 0 W/m 2,6 km/h (1 Bft)
30.01.2014 23:26 1,2 C -0,6 C 83 % 1006,5 hPa 0,0 l/m 0 min 0 min 0,0 UV-I 0 W/m 0,0 km/h (0 Bft)
30.01.2014 23:28 1,2 C -0,6 C 83 % 1006,5 hPa 0,0 l/m 0 min 0 min 0,0 UV-I 0 W/m 2,6 km/h (1 Bft)
30.01.2014 23:30 1,2 C -0,6 C 83 % 1006,5 hPa 0,0 l/m 0 min 0 min 0,0 UV-I 0 W/m 0,0 km/h (0 Bft)
30.01.2014 23:32 1,2 C -0,6 C 83 % 1006,6 hPa 0,0 l/m 0 min 0 min 0,0 UV-I 0 W/m 10,3 km/h (2 Bft)
30.01.2014 23:34 1,1 C -0,6 C 83 % 1006,6 hPa 0,0 l/m 0 min 0 min 0,0 UV-I 0 W/m 12,9 km/h (3 Bft)
30.01.2014 23:36 1,2 C -0,6 C 83 % 1006,7 hPa 0,0 l/m 0 min 0 min 0,0 UV-I 0 W/m 7,7 km/h (2 Bft)
30.01.2014 23:38 1,2 C -0,6 C 83 % 1006,7 hPa 0,0 l/m 0 min 0 min 0,0 UV-I 0 W/m 10,3 km/h (2 Bft)
30.01.2014 23:40 1,2 C -0,6 C 83 % 1006,8 hPa 0,0 l/m 0 min 0 min 0,0 UV-I 0 W/m 2,6 km/h (1 Bft)
30.01.2014 23:42 1,2 C -0,6 C 83 % 1006,7 hPa 0,0 l/m 0 min 0 min 0,0 UV-I 0 W/m 10,3 km/h (2 Bft)
30.01.2014 23:44 1,1 C -0,6 C 83 % 1006,6 hPa 0,0 l/m 0 min 0 min 0,0 UV-I 0 W/m 5,1 km/h (1 Bft)
30.01.2014 23:46 1,1 C -0,6 C 83 % 1006,7 hPa 0,0 l/m 0 min 0 min 0,0 UV-I 0 W/m 5,1 km/h (1 Bft)
30.01.2014 23:48 1,1 C -0,6 C 83 % 1006,7 hPa 0,0 l/m 0 min 0 min 0,0 UV-I 0 W/m 10,3 km/h (2 Bft)
30.01.2014 23:50 1,1 C -0,6 C 83 % 1006,7 hPa 0,0 l/m 0 min 0 min 0,0 UV-I 0 W/m 5,1 km/h (1 Bft)
30.01.2014 23:52 1,1 C -0,6 C 83 % 1006,7 hPa 0,0 l/m 0 min 0 min 0,0 UV-I 0 W/m 10,3 km/h (2 Bft)
30.01.2014 23:54 1,1 C -0,6 C 83 % 1006,7 hPa 0,0 l/m 0 min 0 min 0,0 UV-I 0 W/m 5,1 km/h (1 Bft)
30.01.2014 23:56 1,1 C -0,6 C 83 % 1006,6 hPa 0,0 l/m 0 min 0 min 0,0 UV-I 0 W/m 0,0 km/h (0 Bft)
30.01.2014 23:58 1,1 C -0,6 C 83 % 1006,7 hPa 0,0 l/m 0 min 0 min 0,0 UV-I 0 W/m 5,1 km/h (1 Bft)
_ Min-Zeit 05:46 05:32 14:00 00:00 - - - - - 00:16
Minimum _ 0,4 C -1,1 C 71 % 1003,0 hPa - - - - - 0,0 km/h (0 Bft)
_ Max-Zeit 15:34 15:40 05:56 22:14 00:00 10:46 00:00 00:00 11:28 11:12
Maximum _ 6,2 C 6,1 C 86 % 1006,8 hPa 0,0 l/m 2 min 0 min 0,0 UV-I 392 W/m 28,3 km/h
S-SO (4 Bft)
Durchschnitt _ 2,6 C 1,3 C 80 % 1005,2 hPa #0,0 l/m #4:20 h #0 min. 0,0 UV-I 152 W/m 9,0 km/h (2 Bft)
© 2014 W. Hausmann